Observation data for Coyanosa on 11/07/2019      Previous  Date       Current Mesonet Observations  Soil Data  Daily Summary Page  Observations in Plain Language
KCO1 070600Z 17004KT 18/18 A3009 RMK A01 T01820175  RH  096%=      5-min Rain = 0
KCO1 070601Z 17004KT 18/18 A3009 RMK A01 T01820175  RH  096%=      5-min Rain = 0
KCO1 070602Z 17006KT 18/18 A3009 RMK A01 T01810175  RH  096%=      5-min Rain = 0
KCO1 070603Z 18003KT 18/18 A3009 RMK A01 T01820175  RH  096%=      5-min Rain = 0
KCO1 070604Z 18004KT 18/18 A3008 RMK A01 T01810175  RH  096%=      5-min Rain = 0
KCO1 070605Z 18006KT 18/17 A3008 RMK A01 T01810174  RH  096%=      5-min Rain = 0
KCO1 070606Z 18007KT 18/17 A3008 RMK A01 T01810174  RH  096%=      5-min Rain = 0.01
KCO1 070607Z 17006KT 18/18 A3008 RMK A01 T01820175  RH  096%=      5-min Rain = 0
KCO1 070608Z 17005KT 18/18 A3008 RMK A01 T01820175  RH  095%=      5-min Rain = 0
KCO1 070609Z 18006KT 18/17 A3008 RMK A01 T01820174  RH  095%=      5-min Rain = 0
KCO1 070610Z 18006KT 18/18 A3008 RMK A01 T01820175  RH  095%=      5-min Rain = 0
KCO1 070611Z 17005KT 18/17 A3008 RMK A01 T01820174  RH  095%=      5-min Rain = 0
KCO1 070612Z 18006KT 18/17 A3008 RMK A01 T01820174  RH  095%=      5-min Rain = 0
KCO1 070613Z 18007KT 18/17 A3008 RMK A01 T01830174  RH  095%=      5-min Rain = 0
KCO1 070614Z 17007KT 18/18 A3008 RMK A01 T01830175  RH  095%=      5-min Rain = 0
KCO1 070615Z 17007KT 18/18 A3008 RMK A01 T01840175  RH  094%=      5-min Rain = 0
KCO1 070616Z 17008KT 18/17 A3008 RMK A01 T01840174  RH  094%=      5-min Rain = 0
KCO1 070617Z 17007KT 19/17 A3008 RMK A01 T01850174  RH  094%=      5-min Rain = 0
KCO1 070618Z 17008KT 19/17 A3008 RMK A01 T01850174  RH  093%=      5-min Rain = 0
KCO1 070619Z 18007KT 19/17 A3008 RMK A01 T01850173  RH  093%=      5-min Rain = 0
KCO1 070620Z 18006KT 19/17 A3008 RMK A01 T01860173  RH  092%=      5-min Rain = 0
KCO1 070621Z 19007KT 19/17 A3008 RMK A01 T01850173  RH  092%=      5-min Rain = 0
KCO1 070622Z 20007KT 19/17 A3008 RMK A01 T01860173  RH  092%=      5-min Rain = 0
KCO1 070623Z 20007KT 19/17 A3008 RMK A01 T01860173  RH  092%=      5-min Rain = 0
KCO1 070624Z 22006KT 19/17 A3008 RMK A01 T01860173  RH  092%=      5-min Rain = 0
KCO1 070625Z 23007KT 19/17 A3008 RMK A01 T01860172  RH  092%=      5-min Rain = 0
KCO1 070626Z 23008KT 19/17 A3008 RMK A01 T01860173  RH  092%=      5-min Rain = 0
KCO1 070627Z 24007KT 19/17 A3008 RMK A01 T01860173  RH  092%=      5-min Rain = 0
KCO1 070628Z 24009KT 19/17 A3008 RMK A01 T01860173  RH  092%=      5-min Rain = 0
KCO1 070629Z 24008KT 19/17 A3008 RMK A01 T01850172  RH  092%=      5-min Rain = 0
KCO1 070630Z 24006KT 19/17 A3008 RMK A01 T01850172  RH  092%=      5-min Rain = 0
KCO1 070631Z 25007KT 19/17 A3008 RMK A01 T01850172  RH  092%=      5-min Rain = 0
KCO1 070632Z 27006KT 19/17 A3009 RMK A01 T01850171  RH  092%=      5-min Rain = 0
KCO1 070633Z 27007KT 19/17 A3009 RMK A01 T01850172  RH  092%=      5-min Rain = 0
KCO1 070634Z 27007KT 19/17 A3009 RMK A01 T01850172  RH  092%=      5-min Rain = 0
KCO1 070635Z 27010KT 18/17 A3009 RMK A01 T01840171  RH  092%=      5-min Rain = 0
KCO1 070636Z 28012KT 18/17 A3009 RMK A01 T01840171  RH  092%=      5-min Rain = 0
KCO1 070637Z 28011KT 18/17 A3009 RMK A01 T01840171  RH  092%=      5-min Rain = 0
KCO1 070638Z 28010KT 18/17 A3009 RMK A01 T01840172  RH  093%=      5-min Rain = 0
KCO1 070639Z 28010KT 18/17 A3009 RMK A01 T01830172  RH  093%=      5-min Rain = 0
KCO1 070640Z 28010KT 18/17 A3009 RMK A01 T01830172  RH  093%=      5-min Rain = 0
KCO1 070641Z 28010KT 18/17 A3009 RMK A01 T01820172  RH  094%=      5-min Rain = 0
KCO1 070642Z 28008KT 18/17 A3009 RMK A01 T01820172  RH  094%=      5-min Rain = 0
KCO1 070643Z 28007KT 18/17 A3009 RMK A01 T01820172  RH  094%=      5-min Rain = 0
KCO1 070644Z 28008KT 18/17 A3009 RMK A01 T01810172  RH  094%=      5-min Rain = 0
KCO1 070645Z 28007KT 18/17 A3009 RMK A01 T01810172  RH  095%=      5-min Rain = 0
KCO1 070646Z 28009KT 18/17 A3009 RMK A01 T01810172  RH  095%=      5-min Rain = 0
KCO1 070647Z 28009KT 18/17 A3009 RMK A01 T01800172  RH  095%=      5-min Rain = 0
KCO1 070648Z 28008KT 18/17 A3009 RMK A01 T01800172  RH  095%=      5-min Rain = 0
KCO1 070649Z 28008KT 18/17 A3009 RMK A01 T01800171  RH  095%=      5-min Rain = 0
KCO1 070650Z 28008KT 18/17 A3009 RMK A01 T01800172  RH  095%=      5-min Rain = 0
KCO1 070651Z 27007KT 18/17 A3009 RMK A01 T01800172  RH  095%=      5-min Rain = 0
KCO1 070652Z 27008KT 18/17 A3009 RMK A01 T01790171  RH  095%=      5-min Rain = 0
KCO1 070653Z 28006KT 18/17 A3009 RMK A01 T01790171  RH  095%=      5-min Rain = 0
KCO1 070654Z 28005KT 18/17 A3008 RMK A01 T01790171  RH  095%=      5-min Rain = 0
KCO1 070655Z 28007KT 18/17 A3008 RMK A01 T01790171  RH  095%=      5-min Rain = 0
KCO1 070656Z 27007KT 18/17 A3008 RMK A01 T01790170  RH  095%=      5-min Rain = 0
KCO1 070657Z 28008KT 18/17 A3008 RMK A01 T01780170  RH  095%=      5-min Rain = 0
KCO1 070658Z 27008KT 18/17 A3008 RMK A01 T01790170  RH  095%=      5-min Rain = 0
KCO1 070659Z 27009KT 18/17 A3008 RMK A01 T01780170  RH  095%=      5-min Rain = 0
KCO1 070700Z 28010KT 18/17 A3008 RMK A01 T01780170  RH  095%=      5-min Rain = 0
KCO1 070701Z 28009KT 18/17 A3008 RMK A01 T01780169  RH  095%=      5-min Rain = 0
KCO1 070702Z 27008KT 18/17 A3008 RMK A01 T01780170  RH  095%=      5-min Rain = 0
KCO1 070703Z 27009KT 18/17 A3008 RMK A01 T01780170  RH  095%=      5-min Rain = 0
KCO1 070704Z 27009KT 18/17 A3008 RMK A01 T01780170  RH  095%=      5-min Rain = 0
KCO1 070705Z 27008KT 18/17 A3008 RMK A01 T01780170  RH  095%=      5-min Rain = 0
KCO1 070706Z 27007KT 18/17 A3008 RMK A01 T01780170  RH  095%=      5-min Rain = 0
KCO1 070707Z 27009KT 18/17 A3008 RMK A01 T01770169  RH  095%=      5-min Rain = 0
KCO1 070708Z 27007KT 18/17 A3008 RMK A01 T01770169  RH  095%=      5-min Rain = 0
KCO1 070709Z 27008KT 18/17 A3008 RMK A01 T01770169  RH  095%=      5-min Rain = 0
KCO1 070710Z 27007KT 18/17 A3008 RMK A01 T01770169  RH  095%=      5-min Rain = 0
KCO1 070711Z 27008KT 18/17 A3008 RMK A01 T01770170  RH  095%=      5-min Rain = 0
KCO1 070712Z 27007KT 18/17 A3008 RMK A01 T01770169  RH  095%=      5-min Rain = 0
KCO1 070713Z 27008KT 18/17 A3008 RMK A01 T01770169  RH  095%=      5-min Rain = 0
KCO1 070714Z 27008KT 18/17 A3008 RMK A01 T01770169  RH  095%=      5-min Rain = 0
KCO1 070715Z 27009KT 18/17 A3009 RMK A01 T01770169  RH  095%=      5-min Rain = 0
KCO1 070716Z 27010KT 18/17 A3009 RMK A01 T01760169  RH  095%=      5-min Rain = 0
KCO1 070717Z 28010KT 18/17 A3009 RMK A01 T01770169  RH  095%=      5-min Rain = 0
KCO1 070718Z 28009KT 18/17 A3009 RMK A01 T01760169  RH  095%=      5-min Rain = 0
KCO1 070719Z 27010KT 18/17 A3009 RMK A01 T01760169  RH  095%=      5-min Rain = 0
KCO1 070720Z 28008KT 18/17 A3009 RMK A01 T01760168  RH  095%=      5-min Rain = 0
KCO1 070721Z 28008KT 18/17 A3009 RMK A01 T01760168  RH  095%=      5-min Rain = 0
KCO1 070722Z 28008KT 18/17 A3008 RMK A01 T01750168  RH  095%=      5-min Rain = 0
KCO1 070723Z 28009KT 18/17 A3008 RMK A01 T01750167  RH  095%=      5-min Rain = 0
KCO1 070724Z 28008KT 17/17 A3008 RMK A01 T01740167  RH  095%=      5-min Rain = 0
KCO1 070725Z 27008KT 17/17 A3008 RMK A01 T01740167  RH  095%=      5-min Rain = 0
KCO1 070726Z 28008KT 17/17 A3008 RMK A01 T01740166  RH  095%=      5-min Rain = 0
KCO1 070727Z 28009KT 17/17 A3009 RMK A01 T01740166  RH  095%=      5-min Rain = 0
KCO1 070728Z 27008KT 17/17 A3009 RMK A01 T01740166  RH  095%=      5-min Rain = 0
KCO1 070729Z 27007KT 17/17 A3009 RMK A01 T01740165  RH  095%=      5-min Rain = 0
KCO1 070730Z 27008KT 17/17 A3009 RMK A01 T01740165  RH  095%=      5-min Rain = 0
KCO1 070731Z 27006KT 17/17 A3009 RMK A01 T01740165  RH  095%=      5-min Rain = 0
KCO1 070732Z 28006KT 17/17 A3009 RMK A01 T01740165  RH  095%=      5-min Rain = 0
KCO1 070733Z 28006KT 17/17 A3009 RMK A01 T01740165  RH  095%=      5-min Rain = 0
KCO1 070734Z 28006KT 17/16 A3009 RMK A01 T01730164  RH  095%=      5-min Rain = 0
KCO1 070735Z 28006KT 17/17 A3009 RMK A01 T01730165  RH  095%=      5-min Rain = 0
KCO1 070736Z 28005KT 17/17 A3008 RMK A01 T01730165  RH  095%=      5-min Rain = 0
KCO1 070737Z 28004KT 17/17 A3008 RMK A01 T01730165  RH  095%=      5-min Rain = 0
KCO1 070738Z 28004KT 17/17 A3008 RMK A01 T01730165  RH  095%=      5-min Rain = 0
KCO1 070739Z 28005KT 17/17 A3008 RMK A01 T01730165  RH  095%=      5-min Rain = 0
KCO1 070740Z 28005KT 17/17 A3008 RMK A01 T01730165  RH  095%=      5-min Rain = 0
KCO1 070741Z 28005KT 17/17 A3009 RMK A01 T01730165  RH  095%=      5-min Rain = 0
KCO1 070742Z 28005KT 17/17 A3009 RMK A01 T01730165  RH  095%=      5-min Rain = 0
KCO1 070743Z 28004KT 17/16 A3008 RMK A01 T01720164  RH  095%=      5-min Rain = 0
KCO1 070744Z 27004KT 17/16 A3008 RMK A01 T01720164  RH  095%=      5-min Rain = 0
KCO1 070745Z 27004KT 17/17 A3008 RMK A01 T01720165  RH  095%=      5-min Rain = 0
KCO1 070746Z 27004KT 17/17 A3008 RMK A01 T01720165  RH  095%=      5-min Rain = 0
KCO1 070747Z 27004KT 17/16 A3008 RMK A01 T01720164  RH  095%=      5-min Rain = 0
KCO1 070748Z 28004KT 17/17 A3008 RMK A01 T01720165  RH  095%=      5-min Rain = 0
KCO1 070749Z 27004KT 17/16 A3008 RMK A01 T01720164  RH  095%=      5-min Rain = 0
KCO1 070750Z 27004KT 17/16 A3008 RMK A01 T01720164  RH  095%=      5-min Rain = 0
KCO1 070751Z 28004KT 17/16 A3008 RMK A01 T01720164  RH  095%=      5-min Rain = 0
KCO1 070752Z 28005KT 17/16 A3009 RMK A01 T01710164  RH  095%=      5-min Rain = 0
KCO1 070753Z 28004KT 17/16 A3009 RMK A01 T01710164  RH  096%=      5-min Rain = 0
KCO1 070754Z 28003KT 17/16 A3009 RMK A01 T01710164  RH  095%=      5-min Rain = 0
KCO1 070755Z 28004KT 17/16 A3009 RMK A01 T01710164  RH  096%=      5-min Rain = 0
KCO1 070756Z 28004KT 17/16 A3009 RMK A01 T01710164  RH  096%=      5-min Rain = 0
KCO1 070757Z 28003KT 17/16 A3009 RMK A01 T01700164  RH  096%=      5-min Rain = 0
KCO1 070758Z 28003KT 17/16 A3009 RMK A01 T01710164  RH  096%=      5-min Rain = 0
KCO1 070759Z 28004KT 17/16 A3009 RMK A01 T01700163  RH  096%=      5-min Rain = 0
KCO1 070800Z 28005KT 17/16 A3009 RMK A01 T01700163  RH  096%=      5-min Rain = 0
KCO1 070801Z 28004KT 17/16 A3009 RMK A01 T01700163  RH  096%=      5-min Rain = 0
KCO1 070802Z 28004KT 17/16 A3009 RMK A01 T01700163  RH  096%=      5-min Rain = 0
KCO1 070803Z 28004KT 17/16 A3009 RMK A01 T01700163  RH  096%=      5-min Rain = 0
KCO1 070804Z 28005KT 17/16 A3009 RMK A01 T01700163  RH  096%=      5-min Rain = 0
KCO1 070805Z 28007KT 17/16 A3009 RMK A01 T01700163  RH  096%=      5-min Rain = 0
KCO1 070806Z 29006KT 17/16 A3009 RMK A01 T01690163  RH  096%=      5-min Rain = 0
KCO1 070807Z 29006KT 17/16 A3009 RMK A01 T01690163  RH  096%=      5-min Rain = 0
KCO1 070808Z 29007KT 17/16 A3009 RMK A01 T01690163  RH  096%=      5-min Rain = 0
KCO1 070809Z 29006KT 17/16 A3009 RMK A01 T01690163  RH  096%=      5-min Rain = 0
KCO1 070810Z 29006KT 17/16 A3009 RMK A01 T01690163  RH  096%=      5-min Rain = 0
KCO1 070811Z 29006KT 17/16 A3009 RMK A01 T01690163  RH  096%=      5-min Rain = 0
KCO1 070812Z 30005KT 17/16 A3009 RMK A01 T01690163  RH  096%=      5-min Rain = 0
KCO1 070813Z 30005KT 17/16 A3009 RMK A01 T01690162  RH  096%=      5-min Rain = 0
KCO1 070814Z 30005KT 17/16 A3009 RMK A01 T01690162  RH  096%=      5-min Rain = 0
KCO1 070815Z 30005KT 17/16 A3009 RMK A01 T01690162  RH  096%=      5-min Rain = 0
KCO1 070816Z 30005KT 17/16 A3009 RMK A01 T01690162  RH  096%=      5-min Rain = 0
KCO1 070817Z 30005KT 17/16 A3009 RMK A01 T01690162  RH  096%=      5-min Rain = 0
KCO1 070818Z 30005KT 17/16 A3009 RMK A01 T01680162  RH  096%=      5-min Rain = 0
KCO1 070819Z 30005KT 17/16 A3009 RMK A01 T01680162  RH  096%=      5-min Rain = 0
KCO1 070820Z 30005KT 17/16 A3009 RMK A01 T01680162  RH  096%=      5-min Rain = 0
KCO1 070821Z 31005KT 17/16 A3009 RMK A01 T01680162  RH  096%=      5-min Rain = 0
KCO1 070822Z 31004KT 17/16 A3009 RMK A01 T01680162  RH  096%=      5-min Rain = 0
KCO1 070823Z 30004KT 17/16 A3009 RMK A01 T01680162  RH  096%=      5-min Rain = 0
KCO1 070824Z 30005KT 17/16 A3009 RMK A01 T01670162  RH  096%=      5-min Rain = 0
KCO1 070825Z 30005KT 17/16 A3009 RMK A01 T01680162  RH  096%=      5-min Rain = 0
KCO1 070826Z 30004KT 17/16 A3009 RMK A01 T01680162  RH  096%=      5-min Rain = 0
KCO1 070827Z 30004KT 17/16 A3009 RMK A01 T01680162  RH  096%=      5-min Rain = 0
KCO1 070828Z 31003KT 17/16 A3009 RMK A01 T01670162  RH  096%=      5-min Rain = 0
KCO1 070829Z 30004KT 17/16 A3009 RMK A01 T01670162  RH  096%=      5-min Rain = 0
KCO1 070830Z 31004KT 17/16 A3009 RMK A01 T01670161  RH  096%=      5-min Rain = 0
KCO1 070831Z 31004KT 17/16 A3009 RMK A01 T01670161  RH  096%=      5-min Rain = 0
KCO1 070832Z 31004KT 17/16 A3009 RMK A01 T01670161  RH  096%=      5-min Rain = 0
KCO1 070833Z 32003KT 17/16 A3009 RMK A01 T01670161  RH  096%=      5-min Rain = 0
KCO1 070834Z 31003KT 17/16 A3009 RMK A01 T01670161  RH  096%=      5-min Rain = 0
KCO1 070835Z 31003KT 17/16 A3009 RMK A01 T01660161  RH  096%=      5-min Rain = 0
KCO1 070836Z 32002KT 17/16 A3009 RMK A01 T01670161  RH  097%=      5-min Rain = 0
KCO1 070837Z 31002KT 17/16 A3009 RMK A01 T01660161  RH  097%=      5-min Rain = 0
KCO1 070838Z 32002KT 17/16 A3009 RMK A01 T01660161  RH  097%=      5-min Rain = 0
KCO1 070839Z 32002KT 17/16 A3009 RMK A01 T01660161  RH  097%=      5-min Rain = 0
KCO1 070840Z 32003KT 17/16 A3009 RMK A01 T01660161  RH  097%=      5-min Rain = 0
KCO1 070841Z 32003KT 17/16 A3009 RMK A01 T01660161  RH  097%=      5-min Rain = 0
KCO1 070842Z 32002KT 17/16 A3009 RMK A01 T01660161  RH  097%=      5-min Rain = 0
KCO1 070843Z 32002KT 17/16 A3009 RMK A01 T01660161  RH  097%=      5-min Rain = 0
KCO1 070844Z 31002KT 17/16 A3009 RMK A01 T01660160  RH  097%=      5-min Rain = 0
KCO1 070845Z 32003KT 17/16 A3009 RMK A01 T01660160  RH  097%=      5-min Rain = 0
KCO1 070846Z 32003KT 17/16 A3009 RMK A01 T01660161  RH  097%=      5-min Rain = 0
KCO1 070847Z 32003KT 17/16 A3009 RMK A01 T01660161  RH  097%=      5-min Rain = 0
KCO1 070848Z 31003KT 17/16 A3009 RMK A01 T01650160  RH  097%=      5-min Rain = 0
KCO1 070849Z 30003KT 17/16 A3009 RMK A01 T01650160  RH  097%=      5-min Rain = 0
KCO1 070850Z 30003KT 17/16 A3009 RMK A01 T01650159  RH  097%=      5-min Rain = 0
KCO1 070851Z 29003KT 16/16 A3009 RMK A01 T01640159  RH  097%=      5-min Rain = 0
KCO1 070852Z 30003KT 16/16 A3009 RMK A01 T01640159  RH  097%=      5-min Rain = 0
KCO1 070853Z 30003KT 16/16 A3009 RMK A01 T01640159  RH  097%=      5-min Rain = 0
KCO1 070854Z 29003KT 16/16 A3009 RMK A01 T01640159  RH  097%=      5-min Rain = 0
KCO1 070855Z 29003KT 16/16 A3009 RMK A01 T01640159  RH  097%=      5-min Rain = 0
KCO1 070856Z 29003KT 16/16 A3009 RMK A01 T01640159  RH  097%=      5-min Rain = 0
KCO1 070857Z 29004KT 16/16 A301 RMK A01 T01640159  RH  097%=      5-min Rain = 0
KCO1 070858Z 29004KT 16/16 A301 RMK A01 T01640159  RH  097%=      5-min Rain = 0
KCO1 070859Z 29004KT 16/16 A301 RMK A01 T01640159  RH  097%=      5-min Rain = 0
KCO1 070900Z 29004KT 16/16 A301 RMK A01 T01630159  RH  097%=      5-min Rain = 0
KCO1 070901Z 29004KT 16/16 A301 RMK A01 T01640159  RH  097%=      5-min Rain = 0
KCO1 070902Z 30003KT 16/16 A301 RMK A01 T01640159  RH  097%=      5-min Rain = 0
KCO1 070903Z 30003KT 16/16 A301 RMK A01 T01640160  RH  097%=      5-min Rain = 0
KCO1 070904Z 30003KT 16/16 A3009 RMK A01 T01640159  RH  097%=      5-min Rain = 0
KCO1 070905Z 30003KT 16/16 A301 RMK A01 T01640160  RH  097%=      5-min Rain = 0
KCO1 070906Z 29002KT 16/16 A301 RMK A01 T01640160  RH  097%=      5-min Rain = 0
KCO1 070907Z 29002KT 16/16 A301 RMK A01 T01640160  RH  097%=      5-min Rain = 0
KCO1 070908Z 29002KT 16/16 A301 RMK A01 T01640160  RH  097%=      5-min Rain = 0
KCO1 070909Z 29002KT 16/16 A301 RMK A01 T01640160  RH  097%=      5-min Rain = 0
KCO1 070910Z 29002KT 16/16 A301 RMK A01 T01640160  RH  097%=      5-min Rain = 0
KCO1 070911Z 30001KT 16/16 A301 RMK A01 T01640160  RH  097%=      5-min Rain = 0
KCO1 070912Z 29001KT 16/16 A301 RMK A01 T01640160  RH  097%=      5-min Rain = 0
KCO1 070913Z 29001KT 16/16 A301 RMK A01 T01640160  RH  098%=      5-min Rain = 0
KCO1 070914Z 30001KT 16/16 A301 RMK A01 T01640160  RH  098%=      5-min Rain = 0
KCO1 070915Z 31001KT 16/16 A301 RMK A01 T01640160  RH  098%=      5-min Rain = 0
KCO1 070916Z 31001KT 16/16 A301 RMK A01 T01640160  RH  098%=      5-min Rain = 0
KCO1 070917Z 33001KT 16/16 A301 RMK A01 T01640160  RH  098%=      5-min Rain = 0
KCO1 070918Z 33001KT 16/16 A301 RMK A01 T01640160  RH  098%=      5-min Rain = 0
KCO1 070919Z 33002KT 16/16 A301 RMK A01 T01640160  RH  098%=      5-min Rain = 0
KCO1 070920Z 33001KT 16/16 A301 RMK A01 T01640160  RH  098%=      5-min Rain = 0
KCO1 070921Z 33001KT 16/16 A301 RMK A01 T01640160  RH  098%=      5-min Rain = 0
KCO1 070922Z 34001KT 16/16 A301 RMK A01 T01640160  RH  098%=      5-min Rain = 0
KCO1 070923Z 35001KT 16/16 A301 RMK A01 T01640160  RH  098%=      5-min Rain = 0
KCO1 070924Z 00001KT 16/16 A301 RMK A01 T01640160  RH  098%=      5-min Rain = 0
KCO1 070925Z 02001KT 16/16 A301 RMK A01 T01640160  RH  098%=      5-min Rain = 0
KCO1 070926Z 03001KT 16/16 A301 RMK A01 T01640160  RH  098%=      5-min Rain = 0
KCO1 070927Z 04002KT 16/16 A301 RMK A01 T01640160  RH  098%=      5-min Rain = 0
KCO1 070928Z 04002KT 16/16 A301 RMK A01 T01640160  RH  098%=      5-min Rain = 0
KCO1 070929Z 05002KT 16/16 A301 RMK A01 T01640160  RH  098%=      5-min Rain = 0.01
KCO1 070930Z 06003KT 16/16 A301 RMK A01 T01630160  RH  098%=      5-min Rain = 0
KCO1 070931Z 06003KT 16/16 A301 RMK A01 T01640160  RH  098%=      5-min Rain = 0
KCO1 070932Z 06003KT 16/16 A301 RMK A01 T01630160  RH  098%=      5-min Rain = 0
KCO1 070933Z 05003KT 16/16 A301 RMK A01 T01640160  RH  098%=      5-min Rain = 0
KCO1 070934Z 05003KT 16/16 A301 RMK A01 T01640160  RH  098%=      5-min Rain = 0
KCO1 070935Z 05003KT 16/16 A301 RMK A01 T01640160  RH  098%=      5-min Rain = 0
KCO1 070936Z 05003KT 16/16 A301 RMK A01 T01640160  RH  098%=      5-min Rain = 0
KCO1 070937Z 04003KT 16/16 A301 RMK A01 T01640160  RH  098%=      5-min Rain = 0
KCO1 070938Z 05002KT 16/16 A301 RMK A01 T01640160  RH  098%=      5-min Rain = 0
KCO1 070939Z 05002KT 16/16 A301 RMK A01 T01640160  RH  098%=      5-min Rain = 0
KCO1 070940Z 06002KT 16/16 A301 RMK A01 T01630160  RH  098%=      5-min Rain = 0
KCO1 070941Z 06002KT 16/16 A301 RMK A01 T01640160  RH  098%=      5-min Rain = 0
KCO1 070942Z 06002KT 16/16 A301 RMK A01 T01640160  RH  098%=      5-min Rain = 0
KCO1 070943Z 06002KT 16/16 A301 RMK A01 T01640160  RH  098%=      5-min Rain = 0
KCO1 070944Z 07002KT 16/16 A301 RMK A01 T01640160  RH  098%=      5-min Rain = 0
KCO1 070945Z 06002KT 16/16 A301 RMK A01 T01640160  RH  098%=      5-min Rain = 0
KCO1 070946Z 06002KT 16/16 A301 RMK A01 T01640160  RH  098%=      5-min Rain = 0
KCO1 070947Z 05002KT 16/16 A301 RMK A01 T01640160  RH  098%=      5-min Rain = 0
KCO1 070948Z 04002KT 16/16 A301 RMK A01 T01630160  RH  098%=      5-min Rain = 0
KCO1 070949Z 03002KT 16/16 A301 RMK A01 T01630160  RH  098%=      5-min Rain = 0
KCO1 070950Z 03002KT 16/16 A301 RMK A01 T01630160  RH  098%=      5-min Rain = 0
KCO1 070951Z 03002KT 16/16 A301 RMK A01 T01630160  RH  098%=      5-min Rain = 0
KCO1 070952Z 02002KT 16/16 A301 RMK A01 T01630160  RH  098%=      5-min Rain = 0
KCO1 070953Z 00002KT 16/16 A301 RMK A01 T01630160  RH  098%=      5-min Rain = 0
KCO1 070954Z 01001KT 16/16 A301 RMK A01 T01630160  RH  098%=      5-min Rain = 0
KCO1 070955Z 01002KT 16/16 A301 RMK A01 T01630160  RH  098%=      5-min Rain = 0
KCO1 070956Z 35002KT 16/16 A301 RMK A01 T01630160  RH  098%=      5-min Rain = 0
KCO1 070957Z 34003KT 16/16 A301 RMK A01 T01640161  RH  098%=      5-min Rain = 0
KCO1 070958Z 33004KT 16/16 A301 RMK A01 T01640161  RH  098%=      5-min Rain = 0
KCO1 070959Z 34003KT 16/16 A301 RMK A01 T01640161  RH  098%=      5-min Rain = 0
KCO1 071000Z 33003KT 16/16 A301 RMK A01 T01640161  RH  098%=      5-min Rain = 0
KCO1 071001Z 33004KT 16/16 A301 RMK A01 T01640161  RH  098%=      5-min Rain = 0
KCO1 071002Z 32003KT 16/16 A301 RMK A01 T01640161  RH  098%=      5-min Rain = 0
KCO1 071003Z 32005KT 16/16 A301 RMK A01 T01640161  RH  098%=      5-min Rain = 0
KCO1 071004Z 32004KT 16/16 A301 RMK A01 T01640161  RH  098%=      5-min Rain = 0
KCO1 071005Z 31004KT 17/16 A301 RMK A01 T01650162  RH  098%=      5-min Rain = 0
KCO1 071006Z 30004KT 17/16 A301 RMK A01 T01650162  RH  098%=      5-min Rain = 0
KCO1 071007Z 31005KT 17/16 A301 RMK A01 T01650162  RH  098%=      5-min Rain = 0
KCO1 071008Z 30004KT 16/16 A301 RMK A01 T01640161  RH  098%=      5-min Rain = 0
KCO1 071009Z 31006KT 16/16 A301 RMK A01 T01640161  RH  098%=      5-min Rain = 0
KCO1 071010Z 31005KT 16/16 A301 RMK A01 T01640161  RH  098%=      5-min Rain = 0
KCO1 071011Z 31005KT 17/16 A301 RMK A01 T01650162  RH  098%=      5-min Rain = 0
KCO1 071012Z 31004KT 17/16 A301 RMK A01 T01650161  RH  098%=      5-min Rain = 0
KCO1 071013Z 31004KT 16/16 A301 RMK A01 T01640161  RH  098%=      5-min Rain = 0
KCO1 071014Z 30004KT 17/16 A301 RMK A01 T01650162  RH  098%=      5-min Rain = 0
KCO1 071015Z 30003KT 17/16 A301 RMK A01 T01650161  RH  098%=      5-min Rain = 0
KCO1 071016Z 30003KT 17/16 A301 RMK A01 T01650161  RH  098%=      5-min Rain = 0
KCO1 071017Z 29003KT 17/16 A301 RMK A01 T01650161  RH  098%=      5-min Rain = 0
KCO1 071018Z 29003KT 17/16 A301 RMK A01 T01650161  RH  098%=      5-min Rain = 0
KCO1 071019Z 29003KT 17/16 A301 RMK A01 T01650161  RH  098%=      5-min Rain = 0
KCO1 071020Z 30004KT 17/16 A301 RMK A01 T01650161  RH  098%=      5-min Rain = 0
KCO1 071021Z 30004KT 17/16 A301 RMK A01 T01650161  RH  098%=      5-min Rain = 0
KCO1 071022Z 30004KT 17/16 A3009 RMK A01 T01650161  RH  098%=      5-min Rain = 0
KCO1 071023Z 29004KT 16/16 A3009 RMK A01 T01640161  RH  098%=      5-min Rain = 0
KCO1 071024Z 29004KT 17/16 A3009 RMK A01 T01650161  RH  098%=      5-min Rain = 0
KCO1 071025Z 28003KT 17/16 A3009 RMK A01 T01650161  RH  098%=      5-min Rain = 0
KCO1 071026Z 28003KT 17/16 A301 RMK A01 T01650161  RH  098%=      5-min Rain = 0
KCO1 071027Z 28003KT 17/16 A301 RMK A01 T01650161  RH  098%=      5-min Rain = 0
KCO1 071028Z 28004KT 17/16 A301 RMK A01 T01650161  RH  098%=      5-min Rain = 0
KCO1 071029Z 28004KT 16/16 A301 RMK A01 T01640161  RH  098%=      5-min Rain = 0
KCO1 071030Z 28003KT 17/16 A301 RMK A01 T01650161  RH  098%=      5-min Rain = 0
KCO1 071031Z 28004KT 17/16 A301 RMK A01 T01650161  RH  098%=      5-min Rain = 0
KCO1 071032Z 29003KT 17/16 A301 RMK A01 T01650161  RH  098%=      5-min Rain = 0
KCO1 071033Z 29003KT 17/16 A301 RMK A01 T01650161  RH  098%=      5-min Rain = 0
KCO1 071034Z 30004KT 17/16 A301 RMK A01 T01650161  RH  098%=      5-min Rain = 0
KCO1 071035Z 29004KT 17/16 A301 RMK A01 T01650161  RH  098%=      5-min Rain = 0
KCO1 071036Z 29004KT 16/16 A301 RMK A01 T01640161  RH  098%=      5-min Rain = 0
KCO1 071037Z 29003KT 17/16 A301 RMK A01 T01650161  RH  098%=      5-min Rain = 0
KCO1 071038Z 28003KT 17/16 A301 RMK A01 T01650161  RH  098%=      5-min Rain = 0
KCO1 071039Z 27003KT 17/16 A3011 RMK A01 T01650161  RH  098%=      5-min Rain = 0
KCO1 071040Z 27004KT 17/16 A3011 RMK A01 T01650161  RH  098%=      5-min Rain = 0
KCO1 071041Z 27004KT 17/16 A3011 RMK A01 T01650161  RH  098%=      5-min Rain = 0
KCO1 071042Z 27004KT 17/16 A3011 RMK A01 T01650161  RH  098%=      5-min Rain = 0
KCO1 071043Z 26004KT 17/16 A3011 RMK A01 T01650161  RH  098%=      5-min Rain = 0
KCO1 071044Z 26004KT 17/16 A3011 RMK A01 T01650161  RH  098%=      5-min Rain = 0
KCO1 071045Z 26004KT 17/16 A3011 RMK A01 T01650161  RH  098%=      5-min Rain = 0
KCO1 071046Z 26005KT 17/16 A3011 RMK A01 T01650161  RH  098%=      5-min Rain = 0
KCO1 071047Z 26005KT 17/16 A3011 RMK A01 T01650161  RH  098%=      5-min Rain = 0
KCO1 071048Z 26005KT 16/16 A3011 RMK A01 T01640161  RH  098%=      5-min Rain = 0
KCO1 071049Z 26005KT 17/16 A3011 RMK A01 T01650161  RH  098%=      5-min Rain = 0
KCO1 071050Z 26004KT 17/16 A3011 RMK A01 T01650161  RH  098%=      5-min Rain = 0
KCO1 071051Z 25003KT 16/16 A3011 RMK A01 T01640161  RH  098%=      5-min Rain = 0
KCO1 071052Z 24002KT 17/16 A3011 RMK A01 T01650161  RH  098%=      5-min Rain = 0
KCO1 071053Z 23002KT 17/16 A3011 RMK A01 T01650161  RH  098%=      5-min Rain = 0
KCO1 071054Z 22003KT 17/16 A3011 RMK A01 T01650161  RH  098%=      5-min Rain = 0
KCO1 071055Z 21003KT 17/16 A3011 RMK A01 T01650161  RH  098%=      5-min Rain = 0
KCO1 071056Z 22004KT 16/16 A3011 RMK A01 T01640161  RH  098%=      5-min Rain = 0
KCO1 071057Z 22003KT 16/16 A3011 RMK A01 T01640161  RH  098%=      5-min Rain = 0
KCO1 071058Z 22003KT 16/16 A3011 RMK A01 T01640161  RH  098%=      5-min Rain = 0
KCO1 071059Z 22003KT 16/16 A3011 RMK A01 T01640161  RH  098%=      5-min Rain = 0
KCO1 071100Z 22003KT 17/16 A3011 RMK A01 T01650161  RH  098%=      5-min Rain = 0
KCO1 071101Z 23003KT 17/16 A3011 RMK A01 T01650161  RH  098%=      5-min Rain = 0
KCO1 071102Z 22003KT 17/16 A3011 RMK A01 T01650161  RH  098%=      5-min Rain = 0
KCO1 071103Z 22003KT 17/16 A3011 RMK A01 T01650161  RH  098%=      5-min Rain = 0
KCO1 071104Z 22003KT 17/16 A3011 RMK A01 T01650161  RH  098%=      5-min Rain = 0
KCO1 071105Z 22003KT 17/16 A3011 RMK A01 T01650161  RH  098%=      5-min Rain = 0
KCO1 071106Z 22003KT 17/16 A3011 RMK A01 T01650161  RH  098%=      5-min Rain = 0
KCO1 071107Z 22003KT 16/16 A3011 RMK A01 T01640161  RH  098%=      5-min Rain = 0
KCO1 071108Z 22003KT 17/16 A3011 RMK A01 T01650161  RH  098%=      5-min Rain = 0
KCO1 071109Z 20003KT 17/16 A3011 RMK A01 T01650161  RH  098%=      5-min Rain = 0
KCO1 071110Z 20003KT 17/16 A3011 RMK A01 T01650161  RH  098%=      5-min Rain = 0
KCO1 071111Z 20003KT 17/16 A3011 RMK A01 T01650161  RH  098%=      5-min Rain = 0
KCO1 071112Z 21003KT 17/16 A3012 RMK A01 T01650161  RH  098%=      5-min Rain = 0
KCO1 071113Z 19005KT 16/16 A3012 RMK A01 T01640161  RH  098%=      5-min Rain = 0
KCO1 071114Z 19006KT 17/16 A3012 RMK A01 T01650161  RH  098%=      5-min Rain = 0
KCO1 071115Z 19006KT 17/16 A3012 RMK A01 T01650161  RH  098%=      5-min Rain = 0
KCO1 071116Z 19005KT 17/16 A3012 RMK A01 T01650161  RH  098%=      5-min Rain = 0
KCO1 071117Z 21004KT 16/16 A3012 RMK A01 T01640161  RH  098%=      5-min Rain = 0
KCO1 071118Z 21005KT 17/16 A3012 RMK A01 T01650161  RH  098%=      5-min Rain = 0
KCO1 071119Z 22006KT 17/16 A3012 RMK A01 T01650161  RH  098%=      5-min Rain = 0
KCO1 071120Z 22005KT 17/16 A3012 RMK A01 T01650161  RH  098%=      5-min Rain = 0
KCO1 071121Z 22004KT 17/16 A3012 RMK A01 T01650161  RH  098%=      5-min Rain = 0
KCO1 071122Z 21003KT 17/16 A3012 RMK A01 T01650161  RH  098%=      5-min Rain = 0
KCO1 071123Z 20003KT 17/16 A3012 RMK A01 T01650161  RH  098%=      5-min Rain = 0
KCO1 071124Z 21004KT 17/16 A3012 RMK A01 T01650161  RH  098%=      5-min Rain = 0
KCO1 071125Z 22004KT 17/16 A3012 RMK A01 T01650161  RH  098%=      5-min Rain = 0
KCO1 071126Z 23004KT 16/16 A3012 RMK A01 T01640161  RH  098%=      5-min Rain = 0
KCO1 071127Z 22004KT 16/16 A3012 RMK A01 T01640160  RH  098%=      5-min Rain = 0
KCO1 071128Z 23003KT 16/16 A3012 RMK A01 T01640161  RH  098%=      5-min Rain = 0
KCO1 071129Z 24003KT 16/16 A3012 RMK A01 T01640160  RH  098%=      5-min Rain = 0
KCO1 071130Z 23002KT 16/16 A3012 RMK A01 T01640161  RH  098%=      5-min Rain = 0
KCO1 071131Z 22004KT 16/16 A3012 RMK A01 T01640161  RH  098%=      5-min Rain = 0
KCO1 071132Z 20003KT 16/16 A3012 RMK A01 T01640161  RH  098%=      5-min Rain = 0
KCO1 071133Z 20004KT 16/16 A3012 RMK A01 T01640160  RH  098%=      5-min Rain = 0
KCO1 071134Z 20004KT 16/16 A3012 RMK A01 T01640160  RH  098%=      5-min Rain = 0
KCO1 071135Z 20004KT 16/16 A3012 RMK A01 T01640161  RH  098%=      5-min Rain = 0
KCO1 071136Z 18004KT 16/16 A3012 RMK A01 T01640160  RH  098%=      5-min Rain = 0
KCO1 071137Z 18004KT 16/16 A3012 RMK A01 T01640160  RH  098%=      5-min Rain = 0
KCO1 071138Z 19004KT 16/16 A3012 RMK A01 T01640160  RH  098%=      5-min Rain = 0
KCO1 071139Z 19005KT 16/16 A3012 RMK A01 T01640160  RH  098%=      5-min Rain = 0
KCO1 071140Z 19005KT 16/16 A3012 RMK A01 T01640160  RH  098%=      5-min Rain = 0
KCO1 071141Z 19003KT 16/16 A3013 RMK A01 T01640160  RH  098%=      5-min Rain = 0
KCO1 071142Z 19005KT 16/16 A3013 RMK A01 T01640160  RH  098%=      5-min Rain = 0
KCO1 071143Z 20003KT 16/16 A3013 RMK A01 T01640160  RH  098%=      5-min Rain = 0
KCO1 071144Z 22004KT 16/16 A3013 RMK A01 T01640160  RH  098%=      5-min Rain = 0
KCO1 071145Z 22005KT 16/16 A3013 RMK A01 T01640160  RH  098%=      5-min Rain = 0
KCO1 071146Z 22005KT 16/16 A3013 RMK A01 T01630160  RH  098%=      5-min Rain = 0
KCO1 071147Z 22005KT 16/16 A3013 RMK A01 T01640160  RH  098%=      5-min Rain = 0
KCO1 071148Z 22005KT 16/16 A3013 RMK A01 T01640160  RH  098%=      5-min Rain = 0
KCO1 071149Z 22004KT 16/16 A3013 RMK A01 T01640160  RH  098%=      5-min Rain = 0
KCO1 071150Z 22004KT 16/16 A3013 RMK A01 T01640160  RH  098%=      5-min Rain = 0
KCO1 071151Z 22004KT 16/16 A3013 RMK A01 T01640160  RH  098%=      5-min Rain = 0
KCO1 071152Z 23003KT 16/16 A3014 RMK A01 T01640160  RH  098%=      5-min Rain = 0
KCO1 071153Z 23002KT 16/16 A3014 RMK A01 T01640160  RH  098%=      5-min Rain = 0
KCO1 071154Z 22003KT 16/16 A3014 RMK A01 T01640160  RH  098%=      5-min Rain = 0
KCO1 071155Z 23003KT 16/16 A3014 RMK A01 T01640160  RH  098%=      5-min Rain = 0
KCO1 071156Z 24004KT 16/16 A3014 RMK A01 T01640161  RH  098%=      5-min Rain = 0
KCO1 071157Z 24005KT 16/16 A3014 RMK A01 T01640161  RH  098%=      5-min Rain = 0
KCO1 071158Z 24005KT 16/16 A3015 RMK A01 T01640160  RH  098%=      5-min Rain = 0
KCO1 071159Z 25006KT 16/16 A3015 RMK A01 T01640161  RH  098%=      5-min Rain = 0
KCO1 071200Z 26006KT 16/16 A3015 RMK A01 T01640161  RH  098%=      5-min Rain = 0
KCO1 071201Z 27005KT 16/16 A3016 RMK A01 T01640161  RH  098%=      5-min Rain = 0
KCO1 071202Z 27006KT 16/16 A3016 RMK A01 T01640160  RH  098%=      5-min Rain = 0
KCO1 071203Z 27006KT 16/16 A3016 RMK A01 T01640161  RH  098%=      5-min Rain = 0
KCO1 071204Z 26005KT 16/16 A3016 RMK A01 T01640161  RH  098%=      5-min Rain = 0
KCO1 071205Z 27005KT 16/16 A3016 RMK A01 T01640161  RH  098%=      5-min Rain = 0
KCO1 071206Z 27007KT 16/16 A3016 RMK A01 T01640161  RH  098%=      5-min Rain = 0
KCO1 071207Z 27006KT 16/16 A3016 RMK A01 T01640161  RH  098%=      5-min Rain = 0
KCO1 071208Z 27005KT 16/16 A3016 RMK A01 T01640160  RH  098%=      5-min Rain = 0
KCO1 071209Z 27005KT 16/16 A3016 RMK A01 T01640161  RH  098%=      5-min Rain = 0
KCO1 071210Z 28006KT 16/16 A3016 RMK A01 T01640161  RH  098%=      5-min Rain = 0
KCO1 071211Z 27006KT 16/16 A3016 RMK A01 T01640161  RH  098%=      5-min Rain = 0
KCO1 071212Z 27005KT 16/16 A3016 RMK A01 T01630160  RH  098%=      5-min Rain = 0
KCO1 071213Z 27004KT 16/16 A3016 RMK A01 T01630160  RH  098%=      5-min Rain = 0
KCO1 071214Z 27005KT 16/16 A3016 RMK A01 T01630160  RH  098%=      5-min Rain = 0
KCO1 071215Z 27005KT 16/16 A3016 RMK A01 T01630160  RH  098%=      5-min Rain = 0
KCO1 071216Z 27006KT 16/16 A3016 RMK A01 T01630160  RH  098%=      5-min Rain = 0
KCO1 071217Z 26006KT 16/16 A3016 RMK A01 T01630160  RH  098%=      5-min Rain = 0
KCO1 071218Z 27006KT 16/16 A3016 RMK A01 T01630160  RH  098%=      5-min Rain = 0
KCO1 071219Z 27005KT 16/16 A3016 RMK A01 T01630160  RH  098%=      5-min Rain = 0
KCO1 071220Z 28004KT 16/16 A3016 RMK A01 T01630160  RH  098%=      5-min Rain = 0
KCO1 071221Z 28004KT 16/16 A3016 RMK A01 T01630160  RH  098%=      5-min Rain = 0
KCO1 071222Z 27003KT 16/16 A3016 RMK A01 T01630160  RH  098%=      5-min Rain = 0
KCO1 071223Z 27003KT 16/16 A3016 RMK A01 T01630160  RH  098%=      5-min Rain = 0
KCO1 071224Z 27004KT 16/16 A3016 RMK A01 T01630160  RH  098%=      5-min Rain = 0
KCO1 071225Z 28004KT 16/16 A3016 RMK A01 T01630160  RH  098%=      5-min Rain = 0
KCO1 071226Z 27003KT 16/16 A3017 RMK A01 T01630160  RH  098%=      5-min Rain = 0
KCO1 071227Z 28003KT 16/16 A3017 RMK A01 T01630160  RH  098%=      5-min Rain = 0
KCO1 071228Z 27003KT 16/16 A3017 RMK A01 T01630160  RH  098%=      5-min Rain = 0
KCO1 071229Z 27003KT 16/16 A3017 RMK A01 T01630160  RH  098%=      5-min Rain = 0
KCO1 071230Z 28003KT 16/16 A3017 RMK A01 T01630160  RH  098%=      5-min Rain = 0
KCO1 071231Z 29003KT 16/16 A3017 RMK A01 T01630160  RH  098%=      5-min Rain = 0
KCO1 071232Z 30002KT 16/16 A3017 RMK A01 T01630160  RH  098%=      5-min Rain = 0
KCO1 071233Z 30002KT 16/16 A3017 RMK A01 T01630160  RH  098%=      5-min Rain = 0
KCO1 071234Z 33002KT 16/16 A3017 RMK A01 T01630160  RH  098%=      5-min Rain = 0
KCO1 071235Z 34002KT 16/16 A3017 RMK A01 T01640161  RH  098%=      5-min Rain = 0
KCO1 071236Z 35002KT 16/16 A3017 RMK A01 T01640161  RH  098%=      5-min Rain = 0
KCO1 071237Z 01003KT 16/16 A3017 RMK A01 T01640162  RH  098%=      5-min Rain = 0
KCO1 071238Z 02006KT 16/16 A3018 RMK A01 T01640162  RH  098%=      5-min Rain = 0
KCO1 071239Z 02006KT 16/16 A3018 RMK A01 T01640161  RH  098%=      5-min Rain = 0
KCO1 071240Z 02006KT 16/16 A3018 RMK A01 T01640161  RH  098%=      5-min Rain = 0
KCO1 071241Z 03006KT 16/16 A3018 RMK A01 T01640161  RH  098%=      5-min Rain = 0
KCO1 071242Z 03005KT 16/16 A3018 RMK A01 T01640162  RH  098%=      5-min Rain = 0
KCO1 071243Z 03005KT 16/16 A3018 RMK A01 T01640162  RH  098%=      5-min Rain = 0
KCO1 071244Z 03005KT 17/16 A3018 RMK A01 T01650162  RH  098%=      5-min Rain = 0
KCO1 071245Z 02005KT 17/16 A3018 RMK A01 T01650162  RH  098%=      5-min Rain = 0
KCO1 071246Z 02006KT 17/16 A3018 RMK A01 T01650162  RH  098%=      5-min Rain = 0
KCO1 071247Z 02005KT 16/16 A3018 RMK A01 T01640162  RH  098%=      5-min Rain = 0
KCO1 071248Z 02007KT 17/16 A3018 RMK A01 T01650162  RH  098%=      5-min Rain = 0
KCO1 071249Z 02008KT 17/16 A3018 RMK A01 T01650162  RH  098%=      5-min Rain = 0
KCO1 071250Z 02008KT 17/16 A3018 RMK A01 T01650162  RH  098%=      5-min Rain = 0
KCO1 071251Z 03008KT 17/16 A3018 RMK A01 T01650162  RH  098%=      5-min Rain = 0
KCO1 071252Z 03008KT 17/16 A3018 RMK A01 T01650163  RH  098%=      5-min Rain = 0
KCO1 071253Z 04009KT 17/16 A3019 RMK A01 T01650162  RH  098%=      5-min Rain = 0
KCO1 071254Z 03007KT 17/16 A3019 RMK A01 T01650162  RH  098%=      5-min Rain = 0
KCO1 071255Z 03008KT 17/16 A3019 RMK A01 T01650163  RH  098%=      5-min Rain = 0
KCO1 071256Z 03010KT 17/16 A3019 RMK A01 T01650163  RH  098%=      5-min Rain = 0
KCO1 071257Z 04009KT 17/16 A3019 RMK A01 T01650163  RH  098%=      5-min Rain = 0.01
KCO1 071258Z 04007KT 17/16 A3019 RMK A01 T01650162  RH  098%=      5-min Rain = 0
KCO1 071259Z 04010KT 17/16 A3019 RMK A01 T01650162  RH  098%=      5-min Rain = 0
KCO1 071300Z 04010KT 17/16 A3019 RMK A01 T01650163  RH  098%=      5-min Rain = 0
KCO1 071301Z 04011KT 17/16 A3019 RMK A01 T01650163  RH  098%=      5-min Rain = 0.01
KCO1 071302Z 04011KT 17/16 A3019 RMK A01 T01650162  RH  098%=      5-min Rain = 0
KCO1 071303Z 04010KT 17/16 A3019 RMK A01 T01650162  RH  098%=      5-min Rain = 0
KCO1 071304Z 04011KT 17/16 A3019 RMK A01 T01650162  RH  098%=      5-min Rain = 0
KCO1 071305Z 04009KT 17/16 A3019 RMK A01 T01650162  RH  098%=      5-min Rain = 0.01
KCO1 071306Z 04009KT 17/16 A3019 RMK A01 T01650162  RH  098%=      5-min Rain = 0
KCO1 071307Z 03011G16KT 17/16 A302 RMK A01 T01650162  RH  098%=      5-min Rain = 0
KCO1 071308Z 03018G24KT 16/16 A302 RMK A01 T01640161  RH  098%=      5-min Rain = 0.01
KCO1 071309Z 02020KT 16/15 A302 RMK A01 T01580154  RH  097%=      5-min Rain = 0.01
KCO1 071310Z 02021KT 15/14 A3021 RMK A01 T01460138  RH  095%=      5-min Rain = 0
KCO1 071311Z 02018G23KT 14/13 A3021 RMK A01 T01380131  RH  095%=      5-min Rain = 0.01
KCO1 071312Z 02023KT 13/13 A3021 RMK A01 T01330126  RH  096%=      5-min Rain = 0
KCO1 071313Z 02019KT 13/12 A3021 RMK A01 T01290122  RH  096%=      5-min Rain = 0
KCO1 071314Z 02018G26KT 13/12 A3021 RMK A01 T01270121  RH  096%=      5-min Rain = 0.01
KCO1 071315Z 03016G25KT 13/12 A302 RMK A01 T01260121  RH  096%=      5-min Rain = 0.01
KCO1 071316Z 03022KT 13/12 A3021 RMK A01 T01250119  RH  096%=      5-min Rain = 0
KCO1 071317Z 03020KT 12/11 A3021 RMK A01 T01210114  RH  096%=      5-min Rain = 0.01
KCO1 071318Z 03023G28KT 12/11 A3021 RMK A01 T01170111  RH  096%=      5-min Rain = 0.01
KCO1 071319Z 02022KT 11/11 A3021 RMK A01 T01140107  RH  096%=      5-min Rain = 0.01
KCO1 071320Z 02023KT 11/11 A3021 RMK A01 T01130107  RH  096%=      5-min Rain = 0.01
KCO1 071321Z 03022G27KT 11/10 A3022 RMK A01 T01110104  RH  096%=      5-min Rain = 0
KCO1 071322Z 03021KT 11/10 A3022 RMK A01 T01090103  RH  096%=      5-min Rain = 0.01
KCO1 071323Z 03020G25KT 11/10 A3022 RMK A01 T01080102  RH  096%=      5-min Rain = 0
KCO1 071324Z 03021G26KT 11/10 A3022 RMK A01 T01060100  RH  096%=      5-min Rain = 0
KCO1 071325Z 02024G29KT 11/10 A3022 RMK A01 T01050099  RH  096%=      5-min Rain = 0
KCO1 071326Z 02025KT 10/10 A3022 RMK A01 T01040097  RH  096%=      5-min Rain = 0
KCO1 071327Z 03023G28KT 10/10 A3022 RMK A01 T01020096  RH  096%=      5-min Rain = 0
KCO1 071328Z 03023KT 10/10 A3022 RMK A01 T01010095  RH  096%=      5-min Rain = 0
KCO1 071329Z 03021KT 10/09 A3022 RMK A01 T01010094  RH  096%=      5-min Rain = 0
KCO1 071330Z 02019KT 10/09 A3023 RMK A01 T01010094  RH  096%=      5-min Rain = 0
KCO1 071331Z 03020KT 10/09 A3023 RMK A01 T01000094  RH  096%=      5-min Rain = 0.01
KCO1 071332Z 03023G28KT 10/09 A3023 RMK A01 T00990093  RH  096%=      5-min Rain = 0
KCO1 071333Z 03021KT 10/09 A3023 RMK A01 T00980091  RH  095%=      5-min Rain = 0
KCO1 071334Z 02022G28KT 10/09 A3023 RMK A01 T00970090  RH  095%=      5-min Rain = 0
KCO1 071335Z 03021KT 10/09 A3023 RMK A01 T00960089  RH  096%=      5-min Rain = 0
KCO1 071336Z 03020KT 10/09 A3023 RMK A01 T00960089  RH  096%=      5-min Rain = 0
KCO1 071337Z 03021KT 10/09 A3023 RMK A01 T00960089  RH  096%=      5-min Rain = 0
KCO1 071338Z 03019KT 10/09 A3023 RMK A01 T00950089  RH  096%=      5-min Rain = 0
KCO1 071339Z 03019KT 10/09 A3024 RMK A01 T00950088  RH  096%=      5-min Rain = 0
KCO1 071340Z 02022G27KT 10/09 A3024 RMK A01 T00950088  RH  096%=      5-min Rain = 0
KCO1 071341Z 02021KT 09/09 A3024 RMK A01 T00940086  RH  095%=      5-min Rain = 0
KCO1 071342Z 02024KT 09/09 A3024 RMK A01 T00930086  RH  095%=      5-min Rain = 0
KCO1 071343Z 02020G25KT 09/08 A3024 RMK A01 T00910084  RH  095%=      5-min Rain = 0
KCO1 071344Z 03019KT 09/08 A3024 RMK A01 T00910084  RH  095%=      5-min Rain = 0
KCO1 071345Z 03021KT 09/08 A3025 RMK A01 T00910084  RH  095%=      5-min Rain = 0
KCO1 071346Z 03021G27KT 09/08 A3025 RMK A01 T00910084  RH  095%=      5-min Rain = 0
KCO1 071347Z 03021G26KT 09/08 A3025 RMK A01 T00910084  RH  095%=      5-min Rain = 0
KCO1 071348Z 03021G26KT 09/08 A3025 RMK A01 T00910083  RH  095%=      5-min Rain = 0
KCO1 071349Z 03019KT 09/08 A3025 RMK A01 T00910084  RH  095%=      5-min Rain = 0
KCO1 071350Z 03019KT 09/08 A3025 RMK A01 T00910084  RH  095%=      5-min Rain = 0
KCO1 071351Z 03019G24KT 09/08 A3025 RMK A01 T00910084  RH  095%=      5-min Rain = 0
KCO1 071352Z 03020KT 09/08 A3025 RMK A01 T00910083  RH  095%=      5-min Rain = 0
KCO1 071353Z 03022KT 09/08 A3026 RMK A01 T00900083  RH  095%=      5-min Rain = 0
KCO1 071354Z 03020G28KT 09/08 A3026 RMK A01 T00890082  RH  095%=      5-min Rain = 0
KCO1 071355Z 02021KT 09/08 A3026 RMK A01 T00890081  RH  095%=      5-min Rain = 0
KCO1 071356Z 02021G28KT 09/08 A3027 RMK A01 T00880080  RH  095%=      5-min Rain = 0
KCO1 071357Z 02018KT 09/08 A3027 RMK A01 T00880079  RH  094%=      5-min Rain = 0
KCO1 071358Z 02019KT 09/08 A3027 RMK A01 T00880079  RH  094%=      5-min Rain = 0
KCO1 071359Z 02018G23KT 09/08 A3027 RMK A01 T00880079  RH  094%=      5-min Rain = 0
KCO1 071400Z 02017G22KT 09/08 A3027 RMK A01 T00880079  RH  094%=      5-min Rain = 0
KCO1 071401Z 02017KT 09/08 A3028 RMK A01 T00880079  RH  095%=      5-min Rain = 0
KCO1 071402Z 01015G21KT 09/08 A3027 RMK A01 T00890080  RH  095%=      5-min Rain = 0
KCO1 071403Z 01018G23KT 09/08 A3028 RMK A01 T00880080  RH  095%=      5-min Rain = 0
KCO1 071404Z 01019KT 09/08 A3028 RMK A01 T00870078  RH  094%=      5-min Rain = 0
KCO1 071405Z 02017KT 09/08 A3027 RMK A01 T00870078  RH  094%=      5-min Rain = 0
KCO1 071406Z 02016KT 09/08 A3027 RMK A01 T00860078  RH  094%=      5-min Rain = 0
KCO1 071407Z 03017G23KT 09/08 A3027 RMK A01 T00860078  RH  095%=      5-min Rain = 0
KCO1 071408Z 02018G23KT 09/08 A3027 RMK A01 T00860077  RH  094%=      5-min Rain = 0
KCO1 071409Z 04018KT 09/08 A3027 RMK A01 T00850077  RH  094%=      5-min Rain = 0
KCO1 071410Z 03021G27KT 09/08 A3027 RMK A01 T00850076  RH  094%=      5-min Rain = 0
KCO1 071411Z 04020G25KT 08/08 A3027 RMK A01 T00840075  RH  094%=      5-min Rain = 0
KCO1 071412Z 03019KT 08/08 A3027 RMK A01 T00840075  RH  094%=      5-min Rain = 0.02
KCO1 071413Z 02018G24KT 08/07 A3028 RMK A01 T00830074  RH  094%=      5-min Rain = 0.03
KCO1 071414Z 02021KT 08/07 A3028 RMK A01 T00820073  RH  094%=      5-min Rain = 0.04
KCO1 071415Z 02018KT 08/07 A3028 RMK A01 T00810072  RH  094%=      5-min Rain = 0.03
KCO1 071416Z 03017KT 08/07 A3028 RMK A01 T00810072  RH  094%=      5-min Rain = 0.02
KCO1 071417Z 02016G21KT 08/07 A3028 RMK A01 T00810073  RH  095%=      5-min Rain = 0.02
KCO1 071418Z 02015KT 08/07 A3028 RMK A01 T00810073  RH  095%=      5-min Rain = 0
KCO1 071419Z 02015KT 08/07 A3028 RMK A01 T00800073  RH  095%=      5-min Rain = 0.01
KCO1 071420Z 02017KT 08/07 A3028 RMK A01 T00800073  RH  095%=      5-min Rain = 0.01
KCO1 071421Z 02017G22KT 08/07 A3028 RMK A01 T00800073  RH  095%=      5-min Rain = 0.01
KCO1 071422Z 02019KT 08/07 A3029 RMK A01 T00780071  RH  095%=      5-min Rain = 0.01
KCO1 071423Z 03020KT 08/07 A3029 RMK A01 T00770069  RH  095%=      5-min Rain = 0
KCO1 071424Z 03019KT 08/07 A3029 RMK A01 T00760068  RH  095%=      5-min Rain = 0
KCO1 071425Z 02018KT 08/07 A3029 RMK A01 T00750068  RH  095%=      5-min Rain = 0.01
KCO1 071426Z 02020KT 08/07 A303 RMK A01 T00750067  RH  095%=      5-min Rain = 0
KCO1 071427Z 02018KT 08/07 A303 RMK A01 T00750067  RH  095%=      5-min Rain = 0
KCO1 071428Z 02018G24KT 08/07 A303 RMK A01 T00750067  RH  095%=      5-min Rain = 0
KCO1 071429Z 02019G24KT 08/07 A303 RMK A01 T00750066  RH  094%=      5-min Rain = 0
KCO1 071430Z 02018KT 08/07 A303 RMK A01 T00750066  RH  094%=      5-min Rain = 0
KCO1 071431Z 02017KT 08/07 A303 RMK A01 T00750066  RH  094%=      5-min Rain = 0
KCO1 071432Z 03017KT 08/07 A303 RMK A01 T00750066  RH  094%=      5-min Rain = 0
KCO1 071433Z 02020G25KT 08/07 A303 RMK A01 T00750066  RH  094%=      5-min Rain = 0
KCO1 071434Z 03018KT 08/07 A303 RMK A01 T00750066  RH  094%=      5-min Rain = 0
KCO1 071435Z 03020KT 08/07 A3031 RMK A01 T00750066  RH  094%=      5-min Rain = 0
KCO1 071436Z 02020KT 07/07 A3031 RMK A01 T00740065  RH  094%=      5-min Rain = 0
KCO1 071437Z 03018KT 07/06 A303 RMK A01 T00740064  RH  093%=      5-min Rain = 0
KCO1 071438Z 03018G24KT 07/06 A303 RMK A01 T00740064  RH  093%=      5-min Rain = 0
KCO1 071439Z 03018KT 07/06 A303 RMK A01 T00740064  RH  093%=      5-min Rain = 0
KCO1 071440Z 04022G28KT 07/06 A303 RMK A01 T00740064  RH  093%=      5-min Rain = 0
KCO1 071441Z 04021KT 07/06 A303 RMK A01 T00740063  RH  093%=      5-min Rain = 0
KCO1 071442Z 04020KT 07/06 A303 RMK A01 T00740063  RH  093%=      5-min Rain = 0
KCO1 071443Z 03017KT 07/06 A303 RMK A01 T00740062  RH  093%=      5-min Rain = 0
KCO1 071444Z 03021KT 07/06 A303 RMK A01 T00730063  RH  093%=      5-min Rain = 0
KCO1 071445Z 03017KT 07/06 A303 RMK A01 T00730062  RH  093%=      5-min Rain = 0
KCO1 071446Z 03018KT 07/06 A3031 RMK A01 T00730062  RH  093%=      5-min Rain = 0
KCO1 071447Z 03019KT 07/06 A3031 RMK A01 T00730061  RH  092%=      5-min Rain = 0
KCO1 071448Z 03017KT 07/06 A3031 RMK A01 T00730061  RH  092%=      5-min Rain = 0
KCO1 071449Z 02018KT 07/06 A3032 RMK A01 T00720060  RH  092%=      5-min Rain = 0
KCO1 071450Z 02019KT 07/06 A3032 RMK A01 T00720060  RH  092%=      5-min Rain = 0
KCO1 071451Z 02016KT 07/06 A3032 RMK A01 T00720060  RH  092%=      5-min Rain = 0
KCO1 071452Z 02013KT 07/06 A3032 RMK A01 T00720060  RH  092%=      5-min Rain = 0
KCO1 071453Z 02015G21KT 07/06 A3033 RMK A01 T00720060  RH  093%=      5-min Rain = 0
KCO1 071454Z 01014KT 07/06 A3033 RMK A01 T00710060  RH  093%=      5-min Rain = 0
KCO1 071455Z 01014KT 07/06 A3033 RMK A01 T00710061  RH  093%=      5-min Rain = 0
KCO1 071456Z 00018KT 07/06 A3034 RMK A01 T00710060  RH  093%=      5-min Rain = 0
KCO1 071457Z 36014G19KT 07/06 A3034 RMK A01 T00700059  RH  093%=      5-min Rain = 0
KCO1 071458Z 36014KT 07/06 A3035 RMK A01 T00700059  RH  093%=      5-min Rain = 0
KCO1 071459Z 36016G21KT 07/06 A3035 RMK A01 T00690058  RH  093%=      5-min Rain = 0
KCO1 071500Z 35021G27KT 07/06 A3035 RMK A01 T00680057  RH  093%=      5-min Rain = 0.01
KCO1 071501Z 01019KT 07/06 A3035 RMK A01 T00670055  RH  092%=      5-min Rain = 0
KCO1 071502Z 01018KT 07/06 A3035 RMK A01 T00670055  RH  092%=      5-min Rain = 0
KCO1 071503Z 02016G21KT 07/06 A3035 RMK A01 T00680055  RH  092%=      5-min Rain = 0
KCO1 071504Z 02019G27KT 07/06 A3035 RMK A01 T00680056  RH  092%=      5-min Rain = 0
KCO1 071505Z 02019KT 07/06 A3035 RMK A01 T00680055  RH  092%=      5-min Rain = 0
KCO1 071506Z 02021G26KT 07/05 A3036 RMK A01 T00680054  RH  091%=      5-min Rain = 0
KCO1 071507Z 02020G25KT 07/05 A3036 RMK A01 T00670053  RH  091%=      5-min Rain = 0
KCO1 071508Z 02017KT 07/05 A3036 RMK A01 T00670053  RH  090%=      5-min Rain = 0
KCO1 071509Z 01015KT 07/05 A3036 RMK A01 T00680054  RH  091%=      5-min Rain = 0
KCO1 071510Z 01013KT 07/05 A3036 RMK A01 T00680054  RH  091%=      5-min Rain = 0
KCO1 071511Z 01015KT 07/06 A3037 RMK A01 T00680055  RH  091%=      5-min Rain = 0
KCO1 071512Z 01017KT 07/06 A3037 RMK A01 T00680055  RH  091%=      5-min Rain = 0
KCO1 071513Z 01017KT 07/06 A3037 RMK A01 T00680055  RH  092%=      5-min Rain = 0
KCO1 071514Z 01016KT 07/06 A3037 RMK A01 T00680056  RH  092%=      5-min Rain = 0
KCO1 071515Z 01015KT 07/06 A3037 RMK A01 T00670055  RH  092%=      5-min Rain = 0
KCO1 071516Z 02013KT 07/06 A3037 RMK A01 T00680056  RH  092%=      5-min Rain = 0
KCO1 071517Z 01014KT 07/06 A3037 RMK A01 T00670057  RH  093%=      5-min Rain = 0
KCO1 071518Z 01016KT 07/06 A3037 RMK A01 T00680057  RH  093%=      5-min Rain = 0
KCO1 071519Z 01013KT 07/06 A3037 RMK A01 T00670057  RH  093%=      5-min Rain = 0
KCO1 071520Z 01013KT 07/06 A3037 RMK A01 T00670057  RH  093%=      5-min Rain = 0
KCO1 071521Z 01013KT 07/06 A3037 RMK A01 T00670057  RH  093%=      5-min Rain = 0
KCO1 071522Z 01014KT 07/06 A3037 RMK A01 T00680058  RH  094%=      5-min Rain = 0
KCO1 071523Z 01015KT 07/06 A3037 RMK A01 T00680058  RH  093%=      5-min Rain = 0
KCO1 071524Z 01018KT 07/06 A3037 RMK A01 T00670057  RH  093%=      5-min Rain = 0
KCO1 071525Z 01020KT 07/06 A3037 RMK A01 T00660056  RH  093%=      5-min Rain = 0
KCO1 071526Z 02017KT 07/05 A3037 RMK A01 T00650054  RH  093%=      5-min Rain = 0
KCO1 071527Z 03017KT 07/05 A3038 RMK A01 T00650054  RH  092%=      5-min Rain = 0
KCO1 071528Z 02016KT 07/05 A3038 RMK A01 T00650052  RH  092%=      5-min Rain = 0
KCO1 071529Z 02016KT 07/05 A3038 RMK A01 T00650052  RH  091%=      5-min Rain = 0
KCO1 071530Z 02014KT 07/05 A3038 RMK A01 T00650052  RH  091%=      5-min Rain = 0
KCO1 071531Z 02015KT 07/05 A3038 RMK A01 T00650052  RH  091%=      5-min Rain = 0
KCO1 071532Z 02015KT 07/05 A3039 RMK A01 T00650051  RH  091%=      5-min Rain = 0
KCO1 071533Z 02014KT 06/05 A3039 RMK A01 T00640051  RH  091%=      5-min Rain = 0
KCO1 071534Z 01013KT 06/05 A3039 RMK A01 T00640052  RH  092%=      5-min Rain = 0
KCO1 071535Z 02010KT 06/05 A3039 RMK A01 T00640052  RH  092%=      5-min Rain = 0
KCO1 071536Z 01009KT 06/05 A3039 RMK A01 T00640052  RH  092%=      5-min Rain = 0
KCO1 071537Z 01011KT 06/05 A304 RMK A01 T00640052  RH  092%=      5-min Rain = 0
KCO1 071538Z 02011KT 06/05 A304 RMK A01 T00640052  RH  092%=      5-min Rain = 0.01
KCO1 071539Z 01011KT 06/05 A304 RMK A01 T00640052  RH  092%=      5-min Rain = 0
KCO1 071540Z 01011KT 06/05 A304 RMK A01 T00640053  RH  093%=      5-min Rain = 0
KCO1 071541Z 00010KT 06/05 A304 RMK A01 T00640053  RH  093%=      5-min Rain = 0
KCO1 071542Z 00008KT 06/05 A304 RMK A01 T00640053  RH  093%=      5-min Rain = 0.01
KCO1 071543Z 35010KT 06/05 A304 RMK A01 T00640054  RH  093%=      5-min Rain = 0
KCO1 071544Z 00011KT 06/05 A304 RMK A01 T00640054  RH  093%=      5-min Rain = 0
KCO1 071545Z 36010KT 06/05 A3039 RMK A01 T00640054  RH  093%=      5-min Rain = 0
KCO1 071546Z 01010KT 06/05 A3039 RMK A01 T00630054  RH  094%=      5-min Rain = 0
KCO1 071547Z 00010KT 06/05 A3039 RMK A01 T00630054  RH  094%=      5-min Rain = 0
KCO1 071548Z 00010KT 06/05 A3039 RMK A01 T00630054  RH  094%=      5-min Rain = 0
KCO1 071549Z 35011KT 06/05 A3039 RMK A01 T00630053  RH  094%=      5-min Rain = 0
KCO1 071550Z 35009KT 06/05 A304 RMK A01 T00620053  RH  094%=      5-min Rain = 0
KCO1 071551Z 35008KT 06/05 A304 RMK A01 T00620053  RH  094%=      5-min Rain = 0.01
KCO1 071552Z 34008KT 06/05 A304 RMK A01 T00620053  RH  094%=      5-min Rain = 0
KCO1 071553Z 34011KT 06/05 A3041 RMK A01 T00620053  RH  094%=      5-min Rain = 0
KCO1 071554Z 34010KT 06/05 A3041 RMK A01 T00620053  RH  094%=      5-min Rain = 0
KCO1 071555Z 35011KT 06/05 A3042 RMK A01 T00620053  RH  094%=      5-min Rain = 0.01
KCO1 071556Z 33010KT 06/05 A3042 RMK A01 T00610052  RH  094%=      5-min Rain = 0
KCO1 071557Z 33013KT 06/05 A3042 RMK A01 T00610052  RH  094%=      5-min Rain = 0
KCO1 071558Z 34010KT 06/05 A3042 RMK A01 T00600051  RH  094%=      5-min Rain = 0
KCO1 071559Z 34008KT 06/05 A3042 RMK A01 T00600051  RH  094%=      5-min Rain = 0
KCO1 071600Z 34010KT 06/05 A3042 RMK A01 T00610052  RH  094%=      5-min Rain = 0
KCO1 071601Z 35011KT 06/05 A3042 RMK A01 T00610052  RH  094%=      5-min Rain = 0
KCO1 071602Z 34012KT 06/05 A3042 RMK A01 T00590051  RH  094%=      5-min Rain = 0
KCO1 071603Z 34011KT 06/05 A3042 RMK A01 T00590050  RH  094%=      5-min Rain = 0
KCO1 071604Z 35012KT 06/05 A3042 RMK A01 T00580049  RH  094%=      5-min Rain = 0
KCO1 071605Z 36013KT 06/05 A3042 RMK A01 T00570048  RH  094%=      5-min Rain = 0.01
KCO1 071606Z 36012KT 06/05 A3042 RMK A01 T00570048  RH  094%=      5-min Rain = 0
KCO1 071607Z 00013KT 06/05 A3042 RMK A01 T00560047  RH  094%=      5-min Rain = 0
KCO1 071608Z 36012KT 06/05 A3042 RMK A01 T00560047  RH  094%=      5-min Rain = 0
KCO1 071609Z 36011KT 06/05 A3042 RMK A01 T00560047  RH  094%=      5-min Rain = 0
KCO1 071610Z 35009KT 06/05 A3042 RMK A01 T00560047  RH  094%=      5-min Rain = 0
KCO1 071611Z 34009KT 06/05 A3043 RMK A01 T00560048  RH  094%=      5-min Rain = 0
KCO1 071612Z 33010KT 06/05 A3043 RMK A01 T00580050  RH  095%=      5-min Rain = 0
KCO1 071613Z 32009KT 06/05 A3043 RMK A01 T00580050  RH  095%=      5-min Rain = 0
KCO1 071614Z 33012KT 06/05 A3043 RMK A01 T00580050  RH  094%=      5-min Rain = 0.01
KCO1 071615Z 33011KT 06/05 A3043 RMK A01 T00570049  RH  094%=      5-min Rain = 0
KCO1 071616Z 34012KT 06/05 A3043 RMK A01 T00570048  RH  094%=      5-min Rain = 0
KCO1 071617Z 35014KT 06/05 A3043 RMK A01 T00560048  RH  094%=      5-min Rain = 0
KCO1 071618Z 34013KT 06/05 A3043 RMK A01 T00550045  RH  094%=      5-min Rain = 0
KCO1 071619Z 35011KT 05/05 A3043 RMK A01 T00540045  RH  094%=      5-min Rain = 0.01
KCO1 071620Z 35009KT 05/05 A3043 RMK A01 T00540045  RH  094%=      5-min Rain = 0
KCO1 071621Z 34013KT 06/05 A3044 RMK A01 T00550046  RH  094%=      5-min Rain = 0.01
KCO1 071622Z 33012KT 06/05 A3044 RMK A01 T00550047  RH  094%=      5-min Rain = 0.01
KCO1 071623Z 32011KT 06/05 A3045 RMK A01 T00550047  RH  095%=      5-min Rain = 0.04
KCO1 071624Z 31013KT 06/05 A3045 RMK A01 T00550047  RH  095%=      5-min Rain = 0.05
KCO1 071625Z 32012KT 05/05 A3045 RMK A01 T00540046  RH  095%=      5-min Rain = 0.06
KCO1 071626Z 31007KT 05/04 A3045 RMK A01 T00520044  RH  094%=      5-min Rain = 0.03
KCO1 071627Z 32007KT 05/04 A3045 RMK A01 T00520044  RH  095%=      5-min Rain = 0.02
KCO1 071628Z 31007KT 05/04 A3045 RMK A01 T00510044  RH  095%=      5-min Rain = 0.01
KCO1 071629Z 31006KT 05/04 A3045 RMK A01 T00510044  RH  095%=      5-min Rain = 0.02
KCO1 071630Z 31007KT 05/04 A3045 RMK A01 T00510044  RH  095%=      5-min Rain = 0.01
KCO1 071631Z 32006KT 05/04 A3045 RMK A01 T00510044  RH  095%=      5-min Rain = 0.01
KCO1 071632Z 32009KT 05/05 A3045 RMK A01 T00510045  RH  096%=      5-min Rain = 0.01
KCO1 071633Z 31009KT 05/05 A3045 RMK A01 T00510045  RH  096%=      5-min Rain = 0
KCO1 071634Z 32007KT 05/05 A3045 RMK A01 T00510045  RH  096%=      5-min Rain = 0
KCO1 071635Z 32008KT 05/05 A3045 RMK A01 T00510045  RH  096%=      5-min Rain = 0.01
KCO1 071636Z 32007KT 05/05 A3045 RMK A01 T00510045  RH  096%=      5-min Rain = 0
KCO1 071637Z 32007KT 05/05 A3045 RMK A01 T00510045  RH  096%=      5-min Rain = 0
KCO1 071638Z 33005KT 05/05 A3045 RMK A01 T00510045  RH  096%=      5-min Rain = 0
KCO1 071639Z 32007KT 05/05 A3045 RMK A01 T00510045  RH  096%=      5-min Rain = 0
KCO1 071640Z 32007KT 05/05 A3045 RMK A01 T00520046  RH  096%=      5-min Rain = 0
KCO1 071641Z 33007KT 05/05 A3044 RMK A01 T00530047  RH  096%=      5-min Rain = 0
KCO1 071642Z 34008KT 05/05 A3044 RMK A01 T00530047  RH  096%=      5-min Rain = 0.01
KCO1 071643Z 34007KT 05/05 A3044 RMK A01 T00530046  RH  096%=      5-min Rain = 0
KCO1 071644Z 35010KT 05/05 A3044 RMK A01 T00520046  RH  096%=      5-min Rain = 0
KCO1 071645Z 34008KT 05/05 A3044 RMK A01 T00510045  RH  096%=      5-min Rain = 0.01
KCO1 071646Z 35008KT 05/05 A3044 RMK A01 T00510045  RH  096%=      5-min Rain = 0.02
KCO1 071647Z 36010KT 05/05 A3044 RMK A01 T00510045  RH  096%=      5-min Rain = 0.01
KCO1 071648Z 35010KT 05/05 A3043 RMK A01 T00510045  RH  096%=      5-min Rain = 0.01
KCO1 071649Z 34010KT 05/05 A3043 RMK A01 T00510045  RH  096%=      5-min Rain = 0.01
KCO1 071650Z 36008KT 05/04 A3044 RMK A01 T00510044  RH  095%=      5-min Rain = 0
KCO1 071651Z 35009KT 05/04 A3044 RMK A01 T00510044  RH  095%=      5-min Rain = 0.01
KCO1 071652Z 35009KT 05/04 A3044 RMK A01 T00510044  RH  095%=      5-min Rain = 0.01
KCO1 071653Z 35010KT 05/04 A3044 RMK A01 T00510044  RH  095%=      5-min Rain = 0.02
KCO1 071654Z 35012KT 05/04 A3043 RMK A01 T00510044  RH  095%=      5-min Rain = 0.01
KCO1 071655Z 35010KT 05/04 A3043 RMK A01 T00500043  RH  095%=      5-min Rain = 0.02
KCO1 071656Z 35010KT 05/04 A3043 RMK A01 T00500044  RH  095%=      5-min Rain = 0
KCO1 071657Z 00007KT 05/04 A3043 RMK A01 T00510044  RH  095%=      5-min Rain = 0.01
KCO1 071658Z 03005KT 05/04 A3043 RMK A01 T00510044  RH  095%=      5-min Rain = 0.01
KCO1 071659Z 02004KT 05/04 A3043 RMK A01 T00500042  RH  095%=      5-min Rain = 0.01
KCO1 071700Z 36005KT 05/04 A3043 RMK A01 T00490041  RH  095%=      5-min Rain = 0
KCO1 071701Z 35008KT 05/04 A3044 RMK A01 T00470040  RH  095%=      5-min Rain = 0.01
KCO1 071702Z 35008KT 05/04 A3044 RMK A01 T00480041  RH  095%=      5-min Rain = 0
KCO1 071703Z 34008KT 05/04 A3043 RMK A01 T00490042  RH  095%=      5-min Rain = 0.01
KCO1 071704Z 35008KT 05/04 A3043 RMK A01 T00500043  RH  095%=      5-min Rain = 0
KCO1 071705Z 36009KT 05/04 A3043 RMK A01 T00510044  RH  095%=      5-min Rain = 0.01
KCO1 071706Z 36008KT 05/04 A3043 RMK A01 T00510044  RH  095%=      5-min Rain = 0
KCO1 071707Z 36008KT 05/04 A3044 RMK A01 T00510044  RH  095%=      5-min Rain = 0
KCO1 071708Z 35008KT 05/04 A3044 RMK A01 T00500043  RH  095%=      5-min Rain = 0.01
KCO1 071709Z 35007KT 05/04 A3044 RMK A01 T00500043  RH  095%=      5-min Rain = 0
KCO1 071710Z 34008KT 05/04 A3044 RMK A01 T00510044  RH  095%=      5-min Rain = 0
KCO1 071711Z 34008KT 05/05 A3044 RMK A01 T00520045  RH  095%=      5-min Rain = 0.01
KCO1 071712Z 33007KT 05/05 A3044 RMK A01 T00520045  RH  095%=      5-min Rain = 0
KCO1 071713Z 34008KT 05/05 A3045 RMK A01 T00540048  RH  096%=      5-min Rain = 0
KCO1 071714Z 33007KT 05/05 A3044 RMK A01 T00540047  RH  095%=      5-min Rain = 0.01
KCO1 071715Z 33008KT 05/05 A3044 RMK A01 T00540046  RH  095%=      5-min Rain = 0
KCO1 071716Z 33009KT 05/05 A3044 RMK A01 T00530046  RH  095%=      5-min Rain = 0
KCO1 071717Z 33010KT 05/05 A3045 RMK A01 T00530046  RH  095%=      5-min Rain = 0
KCO1 071718Z 32008KT 05/05 A3045 RMK A01 T00520045  RH  095%=      5-min Rain = 0
KCO1 071719Z 33007KT 05/05 A3045 RMK A01 T00520045  RH  095%=      5-min Rain = 0
KCO1 071720Z 32011KT 05/05 A3045 RMK A01 T00530046  RH  095%=      5-min Rain = 0
KCO1 071721Z 32008KT 05/04 A3045 RMK A01 T00520044  RH  095%=      5-min Rain = 0
KCO1 071722Z 32008KT 05/05 A3045 RMK A01 T00530045  RH  095%=      5-min Rain = 0
KCO1 071723Z 32008KT 05/05 A3045 RMK A01 T00530045  RH  095%=      5-min Rain = 0
KCO1 071724Z 31007KT 05/05 A3045 RMK A01 T00530046  RH  095%=      5-min Rain = 0.01
KCO1 071725Z 32010KT 05/05 A3045 RMK A01 T00540047  RH  095%=      5-min Rain = 0
KCO1 071726Z 32009KT 05/05 A3045 RMK A01 T00530045  RH  095%=      5-min Rain = 0
KCO1 071727Z 32010KT 05/04 A3045 RMK A01 T00520044  RH  095%=      5-min Rain = 0
KCO1 071728Z 33008KT 05/04 A3045 RMK A01 T00510043  RH  094%=      5-min Rain = 0
KCO1 071729Z 33008KT 05/04 A3045 RMK A01 T00520044  RH  095%=      5-min Rain = 0
KCO1 071730Z 33010KT 05/04 A3045 RMK A01 T00520044  RH  095%=      5-min Rain = 0
KCO1 071731Z 33010KT 05/04 A3045 RMK A01 T00510043  RH  094%=      5-min Rain = 0
KCO1 071732Z 33011KT 05/04 A3045 RMK A01 T00500042  RH  094%=      5-min Rain = 0
KCO1 071733Z 33010KT 05/04 A3045 RMK A01 T00510042  RH  094%=      5-min Rain = 0
KCO1 071734Z 33010KT 05/04 A3045 RMK A01 T00510042  RH  094%=      5-min Rain = 0
KCO1 071735Z 33009KT 05/04 A3045 RMK A01 T00510042  RH  094%=      5-min Rain = 0
KCO1 071736Z 33008KT 05/04 A3045 RMK A01 T00520043  RH  094%=      5-min Rain = 0
KCO1 071737Z 33008KT 05/04 A3045 RMK A01 T00520042  RH  093%=      5-min Rain = 0
KCO1 071738Z 33009KT 05/04 A3045 RMK A01 T00520042  RH  093%=      5-min Rain = 0
KCO1 071739Z 33009KT 05/04 A3045 RMK A01 T00530043  RH  093%=      5-min Rain = 0
KCO1 071740Z 33010KT 05/04 A3045 RMK A01 T00520043  RH  093%=      5-min Rain = 0
KCO1 071741Z 32010KT 05/04 A3044 RMK A01 T00520043  RH  093%=      5-min Rain = 0
KCO1 071742Z 32010KT 05/04 A3044 RMK A01 T00520042  RH  093%=      5-min Rain = 0
KCO1 071743Z 33011KT 05/04 A3044 RMK A01 T00530043  RH  093%=      5-min Rain = 0
KCO1 071744Z 33010KT 05/04 A3044 RMK A01 T00520042  RH  093%=      5-min Rain = 0
KCO1 071745Z 32011KT 05/04 A3044 RMK A01 T00520041  RH  093%=      5-min Rain = 0
KCO1 071746Z 33011KT 05/04 A3044 RMK A01 T00510041  RH  093%=      5-min Rain = 0
KCO1 071747Z 34010KT 05/04 A3044 RMK A01 T00520042  RH  094%=      5-min Rain = 0
KCO1 071748Z 35010KT 05/04 A3044 RMK A01 T00520042  RH  094%=      5-min Rain = 0
KCO1 071749Z 34012KT 05/04 A3044 RMK A01 T00510041  RH  093%=      5-min Rain = 0
KCO1 071750Z 34013KT 05/04 A3044 RMK A01 T00490039  RH  093%=      5-min Rain = 0
KCO1 071751Z 34013KT 05/04 A3044 RMK A01 T00480037  RH  093%=      5-min Rain = 0
KCO1 071752Z 34013KT 05/04 A3044 RMK A01 T00490039  RH  093%=      5-min Rain = 0
KCO1 071753Z 34012KT 05/04 A3044 RMK A01 T00490039  RH  093%=      5-min Rain = 0
KCO1 071754Z 34012KT 05/04 A3044 RMK A01 T00490038  RH  093%=      5-min Rain = 0
KCO1 071755Z 34013KT 05/04 A3045 RMK A01 T00500038  RH  093%=      5-min Rain = 0
KCO1 071756Z 34011KT 05/04 A3045 RMK A01 T00490038  RH  092%=      5-min Rain = 0
KCO1 071757Z 34011KT 05/04 A3045 RMK A01 T00500039  RH  093%=      5-min Rain = 0
KCO1 071758Z 33012KT 05/04 A3045 RMK A01 T00510040  RH  093%=      5-min Rain = 0
KCO1 071759Z 34011KT 05/04 A3045 RMK A01 T00520040  RH  092%=      5-min Rain = 0
KCO1 071800Z 33011KT 05/04 A3045 RMK A01 T00520040  RH  092%=      5-min Rain = 0
KCO1 071801Z 33012KT 05/04 A3045 RMK A01 T00520039  RH  092%=      5-min Rain = 0
KCO1 071802Z 34009KT 05/04 A3045 RMK A01 T00510038  RH  091%=      5-min Rain = 0
KCO1 071803Z 34008KT 05/04 A3045 RMK A01 T00520040  RH  092%=      5-min Rain = 0
KCO1 071804Z 35009KT 05/04 A3045 RMK A01 T00530041  RH  092%=      5-min Rain = 0
KCO1 071805Z 35009KT 05/04 A3045 RMK A01 T00530040  RH  092%=      5-min Rain = 0
KCO1 071806Z 34010KT 05/04 A3045 RMK A01 T00530040  RH  092%=      5-min Rain = 0
KCO1 071807Z 34011KT 05/04 A3045 RMK A01 T00510038  RH  091%=      5-min Rain = 0
KCO1 071808Z 34011KT 05/04 A3045 RMK A01 T00520038  RH  091%=      5-min Rain = 0
KCO1 071809Z 34011KT 05/04 A3045 RMK A01 T00520039  RH  091%=      5-min Rain = 0
KCO1 071810Z 34011KT 05/04 A3045 RMK A01 T00520039  RH  091%=      5-min Rain = 0
KCO1 071811Z 35009KT 05/04 A3045 RMK A01 T00520038  RH  091%=      5-min Rain = 0
KCO1 071812Z 33008KT 05/04 A3045 RMK A01 T00530039  RH  091%=      5-min Rain = 0
KCO1 071813Z 34008KT 05/04 A3045 RMK A01 T00540041  RH  091%=      5-min Rain = 0
KCO1 071814Z 34009KT 05/04 A3045 RMK A01 T00540041  RH  091%=      5-min Rain = 0
KCO1 071815Z 34010KT 05/04 A3045 RMK A01 T00540040  RH  091%=      5-min Rain = 0
KCO1 071816Z 34011KT 05/04 A3045 RMK A01 T00530037  RH  090%=      5-min Rain = 0
KCO1 071817Z 34010KT 05/04 A3045 RMK A01 T00520036  RH  089%=      5-min Rain = 0
KCO1 071818Z 34011KT 05/04 A3045 RMK A01 T00520036  RH  089%=      5-min Rain = 0
KCO1 071819Z 34009KT 05/04 A3045 RMK A01 T00530036  RH  089%=      5-min Rain = 0
KCO1 071820Z 34011KT 05/04 A3045 RMK A01 T00530036  RH  089%=      5-min Rain = 0
KCO1 071821Z 34013KT 05/04 A3045 RMK A01 T00530036  RH  089%=      5-min Rain = 0
KCO1 071822Z 34012KT 05/04 A3045 RMK A01 T00530035  RH  088%=      5-min Rain = 0
KCO1 071823Z 34010KT 05/03 A3045 RMK A01 T00530034  RH  088%=      5-min Rain = 0
KCO1 071824Z 35010KT 05/03 A3045 RMK A01 T00530034  RH  088%=      5-min Rain = 0
KCO1 071825Z 35009KT 05/04 A3045 RMK A01 T00540036  RH  088%=      5-min Rain = 0
KCO1 071826Z 34008KT 05/04 A3045 RMK A01 T00540037  RH  088%=      5-min Rain = 0
KCO1 071827Z 34008KT 06/04 A3045 RMK A01 T00550039  RH  089%=      5-min Rain = 0
KCO1 071828Z 35011KT 06/04 A3045 RMK A01 T00560040  RH  089%=      5-min Rain = 0
KCO1 071829Z 35010KT 06/04 A3045 RMK A01 T00550037  RH  089%=      5-min Rain = 0
KCO1 071830Z 34010KT 05/04 A3045 RMK A01 T00540036  RH  088%=      5-min Rain = 0
KCO1 071831Z 35011KT 05/04 A3045 RMK A01 T00540036  RH  088%=      5-min Rain = 0
KCO1 071832Z 35012KT 05/04 A3045 RMK A01 T00540035  RH  088%=      5-min Rain = 0
KCO1 071833Z 34011KT 05/04 A3045 RMK A01 T00540035  RH  088%=      5-min Rain = 0
KCO1 071834Z 34010KT 05/04 A3045 RMK A01 T00540036  RH  088%=      5-min Rain = 0
KCO1 071835Z 35010KT 06/04 A3045 RMK A01 T00550037  RH  088%=      5-min Rain = 0
KCO1 071836Z 34010KT 06/04 A3045 RMK A01 T00550036  RH  088%=      5-min Rain = 0
KCO1 071837Z 34010KT 05/04 A3045 RMK A01 T00540035  RH  088%=      5-min Rain = 0
KCO1 071838Z 34010KT 05/04 A3045 RMK A01 T00540035  RH  087%=      5-min Rain = 0
KCO1 071839Z 34009KT 06/04 A3045 RMK A01 T00550036  RH  088%=      5-min Rain = 0
KCO1 071840Z 34008KT 05/04 A3045 RMK A01 T00540036  RH  088%=      5-min Rain = 0
KCO1 071841Z 34009KT 06/04 A3045 RMK A01 T00550037  RH  088%=      5-min Rain = 0
KCO1 071842Z 35010KT 06/04 A3045 RMK A01 T00560037  RH  088%=      5-min Rain = 0
KCO1 071843Z 34009KT 06/04 A3045 RMK A01 T00550035  RH  087%=      5-min Rain = 0
KCO1 071844Z 34008KT 06/04 A3045 RMK A01 T00550036  RH  087%=      5-min Rain = 0
KCO1 071845Z 34008KT 06/04 A3045 RMK A01 T00560037  RH  088%=      5-min Rain = 0
KCO1 071846Z 35010KT 06/04 A3044 RMK A01 T00570037  RH  087%=      5-min Rain = 0
KCO1 071847Z 35009KT 06/04 A3044 RMK A01 T00560036  RH  087%=      5-min Rain = 0
KCO1 071848Z 35011KT 06/04 A3044 RMK A01 T00560036  RH  087%=      5-min Rain = 0
KCO1 071849Z 35013KT 06/03 A3044 RMK A01 T00550034  RH  086%=      5-min Rain = 0
KCO1 071850Z 34012KT 05/03 A3044 RMK A01 T00540032  RH  085%=      5-min Rain = 0
KCO1 071851Z 35011KT 05/03 A3044 RMK A01 T00540031  RH  085%=      5-min Rain = 0
KCO1 071852Z 35010KT 05/03 A3044 RMK A01 T00540032  RH  086%=      5-min Rain = 0
KCO1 071853Z 34009KT 05/03 A3044 RMK A01 T00540033  RH  086%=      5-min Rain = 0
KCO1 071854Z 34009KT 06/03 A3044 RMK A01 T00550034  RH  087%=      5-min Rain = 0
KCO1 071855Z 34008KT 06/04 A3044 RMK A01 T00550035  RH  087%=      5-min Rain = 0
KCO1 071856Z 34011KT 06/04 A3044 RMK A01 T00560036  RH  087%=      5-min Rain = 0
KCO1 071857Z 34009KT 06/04 A3044 RMK A01 T00560035  RH  086%=      5-min Rain = 0
KCO1 071858Z 34009KT 06/03 A3044 RMK A01 T00550034  RH  086%=      5-min Rain = 0
KCO1 071859Z 34010KT 06/04 A3044 RMK A01 T00560036  RH  087%=      5-min Rain = 0
KCO1 071900Z 34010KT 06/04 A3043 RMK A01 T00560035  RH  086%=      5-min Rain = 0
KCO1 071901Z 35009KT 06/04 A3043 RMK A01 T00560035  RH  086%=      5-min Rain = 0
KCO1 071902Z 36011KT 06/04 A3043 RMK A01 T00560035  RH  087%=      5-min Rain = 0
KCO1 071903Z 36011KT 06/03 A3043 RMK A01 T00550032  RH  086%=      5-min Rain = 0
KCO1 071904Z 35010KT 05/03 A3043 RMK A01 T00540031  RH  085%=      5-min Rain = 0
KCO1 071905Z 35009KT 05/03 A3043 RMK A01 T00540031  RH  086%=      5-min Rain = 0
KCO1 071906Z 34011KT 05/03 A3043 RMK A01 T00540032  RH  086%=      5-min Rain = 0
KCO1 071907Z 34010KT 05/03 A3043 RMK A01 T00540031  RH  085%=      5-min Rain = 0
KCO1 071908Z 35008KT 05/03 A3043 RMK A01 T00540031  RH  085%=      5-min Rain = 0
KCO1 071909Z 34006KT 05/03 A3043 RMK A01 T00540032  RH  085%=      5-min Rain = 0
KCO1 071910Z 34008KT 06/03 A3043 RMK A01 T00550034  RH  086%=      5-min Rain = 0
KCO1 071911Z 33009KT 06/03 A3043 RMK A01 T00560034  RH  086%=      5-min Rain = 0
KCO1 071912Z 34008KT 06/03 A3043 RMK A01 T00550032  RH  085%=      5-min Rain = 0
KCO1 071913Z 00008KT 06/03 A3043 RMK A01 T00550031  RH  085%=      5-min Rain = 0
KCO1 071914Z 35007KT 06/03 A3043 RMK A01 T00550031  RH  085%=      5-min Rain = 0
KCO1 071915Z 35008KT 06/03 A3043 RMK A01 T00550032  RH  085%=      5-min Rain = 0
KCO1 071916Z 35008KT 06/03 A3043 RMK A01 T00550032  RH  085%=      5-min Rain = 0
KCO1 071917Z 35008KT 06/03 A3042 RMK A01 T00550031  RH  085%=      5-min Rain = 0
KCO1 071918Z 34009KT 05/03 A3042 RMK A01 T00540030  RH  085%=      5-min Rain = 0
KCO1 071919Z 34008KT 06/03 A3042 RMK A01 T00550033  RH  085%=      5-min Rain = 0
KCO1 071920Z 36008KT 06/03 A3043 RMK A01 T00560034  RH  086%=      5-min Rain = 0
KCO1 071921Z 35008KT 06/03 A3043 RMK A01 T00560034  RH  086%=      5-min Rain = 0
KCO1 071922Z 35008KT 06/03 A3043 RMK A01 T00560034  RH  086%=      5-min Rain = 0
KCO1 071923Z 35009KT 06/03 A3043 RMK A01 T00560034  RH  086%=      5-min Rain = 0
KCO1 071924Z 35010KT 06/03 A3043 RMK A01 T00550033  RH  085%=      5-min Rain = 0
KCO1 071925Z 35009KT 06/03 A3043 RMK A01 T00550033  RH  086%=      5-min Rain = 0
KCO1 071926Z 35010KT 06/03 A3043 RMK A01 T00550033  RH  086%=      5-min Rain = 0
KCO1 071927Z 34010KT 06/03 A3043 RMK A01 T00550034  RH  087%=      5-min Rain = 0
KCO1 071928Z 34010KT 06/03 A3043 RMK A01 T00550034  RH  087%=      5-min Rain = 0
KCO1 071929Z 35009KT 06/03 A3043 RMK A01 T00550034  RH  087%=      5-min Rain = 0
KCO1 071930Z 35011KT 06/03 A3043 RMK A01 T00550034  RH  087%=      5-min Rain = 0
KCO1 071931Z 35010KT 05/03 A3043 RMK A01 T00540032  RH  086%=      5-min Rain = 0
KCO1 071932Z 35009KT 05/03 A3043 RMK A01 T00540032  RH  086%=      5-min Rain = 0
KCO1 071933Z 34008KT 05/03 A3043 RMK A01 T00540034  RH  087%=      5-min Rain = 0
KCO1 071934Z 34008KT 06/04 A3043 RMK A01 T00550035  RH  087%=      5-min Rain = 0
KCO1 071935Z 34008KT 06/04 A3043 RMK A01 T00560036  RH  087%=      5-min Rain = 0
KCO1 071936Z 34008KT 06/04 A3043 RMK A01 T00570035  RH  086%=      5-min Rain = 0
KCO1 071937Z 34010KT 06/04 A3042 RMK A01 T00570035  RH  086%=      5-min Rain = 0
KCO1 071938Z 34011KT 06/04 A3042 RMK A01 T00570035  RH  086%=      5-min Rain = 0
KCO1 071939Z 35010KT 06/03 A3042 RMK A01 T00550033  RH  085%=      5-min Rain = 0
KCO1 071940Z 35010KT 06/03 A3042 RMK A01 T00550033  RH  086%=      5-min Rain = 0
KCO1 071941Z 35009KT 05/03 A3042 RMK A01 T00540033  RH  086%=      5-min Rain = 0
KCO1 071942Z 35009KT 06/04 A3042 RMK A01 T00550035  RH  087%=      5-min Rain = 0
KCO1 071943Z 35009KT 05/04 A3042 RMK A01 T00540035  RH  087%=      5-min Rain = 0
KCO1 071944Z 35009KT 06/04 A3043 RMK A01 T00550035  RH  087%=      5-min Rain = 0
KCO1 071945Z 35010KT 06/04 A3042 RMK A01 T00550036  RH  088%=      5-min Rain = 0
KCO1 071946Z 33009KT 06/04 A3042 RMK A01 T00550036  RH  088%=      5-min Rain = 0
KCO1 071947Z 33009KT 06/04 A3042 RMK A01 T00550036  RH  088%=      5-min Rain = 0
KCO1 071948Z 33010KT 06/04 A3042 RMK A01 T00550037  RH  088%=      5-min Rain = 0
KCO1 071949Z 33009KT 05/04 A3042 RMK A01 T00540036  RH  088%=      5-min Rain = 0
KCO1 071950Z 33009KT 05/04 A3042 RMK A01 T00540037  RH  089%=      5-min Rain = 0
KCO1 071951Z 34009KT 05/04 A3042 RMK A01 T00540037  RH  089%=      5-min Rain = 0
KCO1 071952Z 33010KT 05/04 A3042 RMK A01 T00540038  RH  089%=      5-min Rain = 0
KCO1 071953Z 33009KT 05/04 A3042 RMK A01 T00530037  RH  089%=      5-min Rain = 0
KCO1 071954Z 32007KT 05/04 A3042 RMK A01 T00520037  RH  090%=      5-min Rain = 0
KCO1 071955Z 33006KT 05/04 A3042 RMK A01 T00530039  RH  091%=      5-min Rain = 0
KCO1 071956Z 34010KT 05/04 A3042 RMK A01 T00530039  RH  091%=      5-min Rain = 0
KCO1 071957Z 33010KT 05/04 A3042 RMK A01 T00530038  RH  090%=      5-min Rain = 0
KCO1 071958Z 34009KT 05/04 A3042 RMK A01 T00520037  RH  090%=      5-min Rain = 0
KCO1 071959Z 33010KT 05/04 A3042 RMK A01 T00530038  RH  090%=      5-min Rain = 0
KCO1 072000Z 33010KT 05/04 A3042 RMK A01 T00530038  RH  090%=      5-min Rain = 0
KCO1 072001Z 33010KT 05/04 A3042 RMK A01 T00530038  RH  090%=      5-min Rain = 0
KCO1 072002Z 32008KT 05/04 A3042 RMK A01 T00530037  RH  089%=      5-min Rain = 0
KCO1 072003Z 32011KT 05/04 A3042 RMK A01 T00530037  RH  090%=      5-min Rain = 0
KCO1 072004Z 32008KT 05/04 A3042 RMK A01 T00530038  RH  090%=      5-min Rain = 0
KCO1 072005Z 32011KT 05/04 A3042 RMK A01 T00520038  RH  091%=      5-min Rain = 0
KCO1 072006Z 33009KT 05/04 A3042 RMK A01 T00520038  RH  091%=      5-min Rain = 0
KCO1 072007Z 33010KT 05/04 A3042 RMK A01 T00520038  RH  091%=      5-min Rain = 0
KCO1 072008Z 33011KT 05/04 A3042 RMK A01 T00510038  RH  091%=      5-min Rain = 0
KCO1 072009Z 33011KT 05/04 A3042 RMK A01 T00520038  RH  091%=      5-min Rain = 0
KCO1 072010Z 33011KT 05/04 A3042 RMK A01 T00510037  RH  091%=      5-min Rain = 0
KCO1 072011Z 33010KT 05/04 A3042 RMK A01 T00500036  RH  090%=      5-min Rain = 0
KCO1 072012Z 33010KT 05/04 A3042 RMK A01 T00500036  RH  091%=      5-min Rain = 0
KCO1 072013Z 33009KT 05/04 A3042 RMK A01 T00500037  RH  091%=      5-min Rain = 0
KCO1 072014Z 33010KT 05/04 A3042 RMK A01 T00510038  RH  091%=      5-min Rain = 0
KCO1 072015Z 34010KT 05/04 A3042 RMK A01 T00510039  RH  092%=      5-min Rain = 0
KCO1 072016Z 33009KT 05/04 A3042 RMK A01 T00510039  RH  092%=      5-min Rain = 0
KCO1 072017Z 33010KT 05/04 A3042 RMK A01 T00510038  RH  092%=      5-min Rain = 0
KCO1 072018Z 34010KT 05/04 A3042 RMK A01 T00510038  RH  091%=      5-min Rain = 0
KCO1 072019Z 34010KT 05/04 A3042 RMK A01 T00510038  RH  092%=      5-min Rain = 0
KCO1 072020Z 33010KT 05/04 A3042 RMK A01 T00510039  RH  092%=      5-min Rain = 0
KCO1 072021Z 34010KT 05/04 A3042 RMK A01 T00510039  RH  092%=      5-min Rain = 0
KCO1 072022Z 34010KT 05/04 A3042 RMK A01 T00510039  RH  092%=      5-min Rain = 0
KCO1 072023Z 34010KT 05/04 A3042 RMK A01 T00510038  RH  092%=      5-min Rain = 0
KCO1 072024Z 34011KT 05/04 A3042 RMK A01 T00510039  RH  092%=      5-min Rain = 0
KCO1 072025Z 34010KT 05/04 A3042 RMK A01 T00510039  RH  092%=      5-min Rain = 0
KCO1 072026Z 35010KT 05/04 A3042 RMK A01 T00500038  RH  092%=      5-min Rain = 0
KCO1 072027Z 35008KT 05/04 A3042 RMK A01 T00500038  RH  092%=      5-min Rain = 0
KCO1 072028Z 34010KT 05/04 A3042 RMK A01 T00500039  RH  093%=      5-min Rain = 0
KCO1 072029Z 34009KT 05/04 A3042 RMK A01 T00500039  RH  093%=      5-min Rain = 0
KCO1 072030Z 34009KT 05/04 A3042 RMK A01 T00500039  RH  093%=      5-min Rain = 0
KCO1 072031Z 34006KT 05/04 A3042 RMK A01 T00500039  RH  093%=      5-min Rain = 0
KCO1 072032Z 34007KT 05/04 A3042 RMK A01 T00510041  RH  093%=      5-min Rain = 0
KCO1 072033Z 34009KT 05/04 A3042 RMK A01 T00520042  RH  093%=      5-min Rain = 0
KCO1 072034Z 33009KT 05/04 A3042 RMK A01 T00520042  RH  093%=      5-min Rain = 0
KCO1 072035Z 34009KT 05/04 A3042 RMK A01 T00520042  RH  093%=      5-min Rain = 0
KCO1 072036Z 35009KT 05/04 A3042 RMK A01 T00520042  RH  093%=      5-min Rain = 0
KCO1 072037Z 34009KT 05/04 A3041 RMK A01 T00510040  RH  093%=      5-min Rain = 0
KCO1 072038Z 34008KT 05/04 A3041 RMK A01 T00510040  RH  093%=      5-min Rain = 0
KCO1 072039Z 34010KT 05/04 A3041 RMK A01 T00510040  RH  093%=      5-min Rain = 0
KCO1 072040Z 34007KT 05/04 A3041 RMK A01 T00510040  RH  092%=      5-min Rain = 0
KCO1 072041Z 34008KT 05/04 A3041 RMK A01 T00520041  RH  092%=      5-min Rain = 0
KCO1 072042Z 34008KT 05/04 A3041 RMK A01 T00530040  RH  092%=      5-min Rain = 0
KCO1 072043Z 34008KT 05/04 A3041 RMK A01 T00530040  RH  091%=      5-min Rain = 0
KCO1 072044Z 34008KT 05/04 A3041 RMK A01 T00540041  RH  091%=      5-min Rain = 0
KCO1 072045Z 34008KT 05/04 A3041 RMK A01 T00540039  RH  090%=      5-min Rain = 0
KCO1 072046Z 34008KT 06/04 A3041 RMK A01 T00550040  RH  090%=      5-min Rain = 0
KCO1 072047Z 35010KT 06/04 A3041 RMK A01 T00550039  RH  090%=      5-min Rain = 0
KCO1 072048Z 34011KT 06/04 A3042 RMK A01 T00550038  RH  089%=      5-min Rain = 0
KCO1 072049Z 33010KT 05/04 A3042 RMK A01 T00540038  RH  089%=      5-min Rain = 0
KCO1 072050Z 33011KT 06/04 A3042 RMK A01 T00550040  RH  090%=      5-min Rain = 0
KCO1 072051Z 33011KT 06/04 A3042 RMK A01 T00550041  RH  091%=      5-min Rain = 0
KCO1 072052Z 33013KT 05/04 A3042 RMK A01 T00540041  RH  091%=      5-min Rain = 0
KCO1 072053Z 33011KT 05/04 A3042 RMK A01 T00530039  RH  091%=      5-min Rain = 0
KCO1 072054Z 33010KT 05/04 A3042 RMK A01 T00520040  RH  091%=      5-min Rain = 0
KCO1 072055Z 32011KT 05/04 A3042 RMK A01 T00520040  RH  092%=      5-min Rain = 0
KCO1 072056Z 33011KT 05/04 A3042 RMK A01 T00510039  RH  092%=      5-min Rain = 0
KCO1 072057Z 32009KT 05/04 A3042 RMK A01 T00500038  RH  092%=      5-min Rain = 0
KCO1 072058Z 32009KT 05/04 A3042 RMK A01 T00500039  RH  093%=      5-min Rain = 0
KCO1 072059Z 32009KT 05/04 A3042 RMK A01 T00510041  RH  093%=      5-min Rain = 0
KCO1 072100Z 32007KT 05/04 A3043 RMK A01 T00500039  RH  093%=      5-min Rain = 0
KCO1 072101Z 33006KT 05/04 A3043 RMK A01 T00510041  RH  093%=      5-min Rain = 0
KCO1 072102Z 33010KT 05/04 A3043 RMK A01 T00520042  RH  094%=      5-min Rain = 0
KCO1 072103Z 33010KT 05/04 A3043 RMK A01 T00510041  RH  093%=      5-min Rain = 0
KCO1 072104Z 32008KT 05/04 A3043 RMK A01 T00500040  RH  093%=      5-min Rain = 0
KCO1 072105Z 32008KT 05/04 A3043 RMK A01 T00510041  RH  093%=      5-min Rain = 0
KCO1 072106Z 33009KT 05/04 A3043 RMK A01 T00510040  RH  093%=      5-min Rain = 0
KCO1 072107Z 34010KT 05/04 A3043 RMK A01 T00510040  RH  093%=      5-min Rain = 0
KCO1 072108Z 34009KT 05/04 A3043 RMK A01 T00500040  RH  093%=      5-min Rain = 0
KCO1 072109Z 33009KT 05/04 A3043 RMK A01 T00500040  RH  093%=      5-min Rain = 0
KCO1 072110Z 33009KT 05/04 A3043 RMK A01 T00510041  RH  093%=      5-min Rain = 0
KCO1 072111Z 33009KT 05/04 A3043 RMK A01 T00510041  RH  093%=      5-min Rain = 0
KCO1 072112Z 34010KT 05/04 A3043 RMK A01 T00510041  RH  093%=      5-min Rain = 0
KCO1 072113Z 34008KT 05/04 A3042 RMK A01 T00510040  RH  093%=      5-min Rain = 0
KCO1 072114Z 34008KT 05/04 A3042 RMK A01 T00510040  RH  093%=      5-min Rain = 0
KCO1 072115Z 34009KT 05/04 A3042 RMK A01 T00510040  RH  092%=      5-min Rain = 0
KCO1 072116Z 34008KT 05/04 A3042 RMK A01 T00510039  RH  092%=      5-min Rain = 0
KCO1 072117Z 33008KT 05/04 A3042 RMK A01 T00510039  RH  092%=      5-min Rain = 0
KCO1 072118Z 33010KT 05/04 A3042 RMK A01 T00510039  RH  092%=      5-min Rain = 0
KCO1 072119Z 33010KT 05/04 A3042 RMK A01 T00510039  RH  091%=      5-min Rain = 0
KCO1 072120Z 34010KT 05/04 A3042 RMK A01 T00520038  RH  091%=      5-min Rain = 0
KCO1 072121Z 35009KT 05/04 A3042 RMK A01 T00520038  RH  091%=      5-min Rain = 0
KCO1 072122Z 34009KT 05/04 A3042 RMK A01 T00520038  RH  091%=      5-min Rain = 0
KCO1 072123Z 34009KT 05/04 A3042 RMK A01 T00530039  RH  091%=      5-min Rain = 0
KCO1 072124Z 34008KT 05/04 A3042 RMK A01 T00520038  RH  090%=      5-min Rain = 0
KCO1 072125Z 34010KT 05/04 A3042 RMK A01 T00530038  RH  090%=      5-min Rain = 0
KCO1 072126Z 35008KT 05/04 A3042 RMK A01 T00520037  RH  090%=      5-min Rain = 0
KCO1 072127Z 35009KT 05/04 A3042 RMK A01 T00520037  RH  090%=      5-min Rain = 0
KCO1 072128Z 35010KT 05/04 A3042 RMK A01 T00520036  RH  090%=      5-min Rain = 0
KCO1 072129Z 35011KT 05/04 A3042 RMK A01 T00520037  RH  090%=      5-min Rain = 0
KCO1 072130Z 35010KT 05/04 A3042 RMK A01 T00520036  RH  089%=      5-min Rain = 0
KCO1 072131Z 35009KT 05/04 A3042 RMK A01 T00520036  RH  090%=      5-min Rain = 0
KCO1 072132Z 35008KT 05/04 A3042 RMK A01 T00520036  RH  090%=      5-min Rain = 0
KCO1 072133Z 35010KT 05/04 A3042 RMK A01 T00530037  RH  090%=      5-min Rain = 0
KCO1 072134Z 35009KT 05/04 A3042 RMK A01 T00520036  RH  089%=      5-min Rain = 0
KCO1 072135Z 34008KT 05/04 A3042 RMK A01 T00520036  RH  089%=      5-min Rain = 0
KCO1 072136Z 34009KT 05/04 A3042 RMK A01 T00530037  RH  089%=      5-min Rain = 0
KCO1 072137Z 34008KT 05/04 A3042 RMK A01 T00540037  RH  089%=      5-min Rain = 0
KCO1 072138Z 34009KT 05/04 A3042 RMK A01 T00540037  RH  089%=      5-min Rain = 0
KCO1 072139Z 35010KT 05/04 A3042 RMK A01 T00530035  RH  088%=      5-min Rain = 0
KCO1 072140Z 35010KT 05/03 A3042 RMK A01 T00530034  RH  088%=      5-min Rain = 0
KCO1 072141Z 35008KT 05/03 A3042 RMK A01 T00530033  RH  087%=      5-min Rain = 0
KCO1 072142Z 36008KT 05/03 A3042 RMK A01 T00530034  RH  088%=      5-min Rain = 0
KCO1 072143Z 35009KT 05/04 A3042 RMK A01 T00530035  RH  088%=      5-min Rain = 0
KCO1 072144Z 35008KT 05/03 A3042 RMK A01 T00530034  RH  087%=      5-min Rain = 0
KCO1 072145Z 35008KT 05/03 A3043 RMK A01 T00530034  RH  087%=      5-min Rain = 0
KCO1 072146Z 35010KT 05/03 A3043 RMK A01 T00530033  RH  087%=      5-min Rain = 0
KCO1 072147Z 35008KT 05/03 A3043 RMK A01 T00540033  RH  087%=      5-min Rain = 0
KCO1 072148Z 35009KT 05/03 A3043 RMK A01 T00530033  RH  087%=      5-min Rain = 0
KCO1 072149Z 36010KT 05/03 A3043 RMK A01 T00530032  RH  086%=      5-min Rain = 0
KCO1 072150Z 36010KT 05/03 A3043 RMK A01 T00530031  RH  085%=      5-min Rain = 0
KCO1 072151Z 35007KT 05/03 A3043 RMK A01 T00530031  RH  085%=      5-min Rain = 0
KCO1 072152Z 34009KT 05/03 A3043 RMK A01 T00540033  RH  086%=      5-min Rain = 0
KCO1 072153Z 35009KT 06/03 A3043 RMK A01 T00550034  RH  086%=      5-min Rain = 0
KCO1 072154Z 35009KT 06/03 A3043 RMK A01 T00550034  RH  086%=      5-min Rain = 0
KCO1 072155Z 35008KT 05/03 A3043 RMK A01 T00540033  RH  086%=      5-min Rain = 0
KCO1 072156Z 34007KT 05/03 A3043 RMK A01 T00540033  RH  086%=      5-min Rain = 0
KCO1 072157Z 35007KT 05/03 A3043 RMK A01 T00540033  RH  086%=      5-min Rain = 0
KCO1 072158Z 35008KT 06/03 A3043 RMK A01 T00550034  RH  086%=      5-min Rain = 0
KCO1 072159Z 00008KT 06/03 A3043 RMK A01 T00550034  RH  086%=      5-min Rain = 0
KCO1 072200Z 35008KT 06/03 A3043 RMK A01 T00550034  RH  087%=      5-min Rain = 0
KCO1 072201Z 36008KT 06/04 A3043 RMK A01 T00550035  RH  087%=      5-min Rain = 0
KCO1 072202Z 35009KT 06/04 A3043 RMK A01 T00550035  RH  087%=      5-min Rain = 0
KCO1 072203Z 36008KT 05/03 A3043 RMK A01 T00540033  RH  086%=      5-min Rain = 0
KCO1 072204Z 00007KT 05/03 A3043 RMK A01 T00540033  RH  086%=      5-min Rain = 0
KCO1 072205Z 36007KT 05/03 A3042 RMK A01 T00540034  RH  087%=      5-min Rain = 0
KCO1 072206Z 35008KT 06/04 A3042 RMK A01 T00550035  RH  087%=      5-min Rain = 0
KCO1 072207Z 35008KT 05/03 A3042 RMK A01 T00540033  RH  086%=      5-min Rain = 0
KCO1 072208Z 35008KT 05/03 A3042 RMK A01 T00540034  RH  086%=      5-min Rain = 0
KCO1 072209Z 35009KT 05/03 A3042 RMK A01 T00540034  RH  087%=      5-min Rain = 0
KCO1 072210Z 36007KT 05/03 A3042 RMK A01 T00540034  RH  087%=      5-min Rain = 0
KCO1 072211Z 00008KT 06/04 A3042 RMK A01 T00550035  RH  087%=      5-min Rain = 0
KCO1 072212Z 36009KT 06/04 A3042 RMK A01 T00550035  RH  087%=      5-min Rain = 0
KCO1 072213Z 35008KT 06/03 A3042 RMK A01 T00550034  RH  087%=      5-min Rain = 0
KCO1 072214Z 36009KT 05/03 A3042 RMK A01 T00540034  RH  087%=      5-min Rain = 0
KCO1 072215Z 35008KT 05/03 A3042 RMK A01 T00540034  RH  087%=      5-min Rain = 0
KCO1 072216Z 35009KT 05/04 A3042 RMK A01 T00540035  RH  087%=      5-min Rain = 0
KCO1 072217Z 36009KT 06/04 A3042 RMK A01 T00550036  RH  088%=      5-min Rain = 0
KCO1 072218Z 36008KT 06/04 A3042 RMK A01 T00550036  RH  088%=      5-min Rain = 0
KCO1 072219Z 36010KT 06/04 A3042 RMK A01 T00550036  RH  087%=      5-min Rain = 0
KCO1 072220Z 35008KT 05/03 A3043 RMK A01 T00540034  RH  087%=      5-min Rain = 0
KCO1 072221Z 35008KT 05/03 A3043 RMK A01 T00540034  RH  087%=      5-min Rain = 0
KCO1 072222Z 35006KT 06/04 A3043 RMK A01 T00550035  RH  087%=      5-min Rain = 0
KCO1 072223Z 35007KT 06/04 A3043 RMK A01 T00550036  RH  087%=      5-min Rain = 0
KCO1 072224Z 34009KT 06/04 A3042 RMK A01 T00550035  RH  087%=      5-min Rain = 0
KCO1 072225Z 34009KT 05/03 A3042 RMK A01 T00540034  RH  087%=      5-min Rain = 0
KCO1 072226Z 35007KT 05/03 A3042 RMK A01 T00540033  RH  086%=      5-min Rain = 0
KCO1 072227Z 35007KT 06/03 A3043 RMK A01 T00550034  RH  087%=      5-min Rain = 0
KCO1 072228Z 34007KT 05/03 A3043 RMK A01 T00540034  RH  087%=      5-min Rain = 0
KCO1 072229Z 34007KT 06/03 A3043 RMK A01 T00550034  RH  087%=      5-min Rain = 0
KCO1 072230Z 35007KT 06/03 A3043 RMK A01 T00550034  RH  086%=      5-min Rain = 0
KCO1 072231Z 01009KT 06/03 A3043 RMK A01 T00550034  RH  086%=      5-min Rain = 0
KCO1 072232Z 35009KT 05/03 A3043 RMK A01 T00540033  RH  086%=      5-min Rain = 0
KCO1 072233Z 35008KT 05/03 A3043 RMK A01 T00540033  RH  086%=      5-min Rain = 0
KCO1 072234Z 34008KT 05/03 A3043 RMK A01 T00540033  RH  087%=      5-min Rain = 0
KCO1 072235Z 34007KT 05/04 A3043 RMK A01 T00540035  RH  088%=      5-min Rain = 0
KCO1 072236Z 34009KT 05/04 A3043 RMK A01 T00540035  RH  088%=      5-min Rain = 0
KCO1 072237Z 33010KT 05/04 A3043 RMK A01 T00540036  RH  088%=      5-min Rain = 0
KCO1 072238Z 34010KT 05/04 A3043 RMK A01 T00540037  RH  088%=      5-min Rain = 0
KCO1 072239Z 34010KT 05/04 A3043 RMK A01 T00540037  RH  089%=      5-min Rain = 0
KCO1 072240Z 34010KT 05/04 A3043 RMK A01 T00540038  RH  089%=      5-min Rain = 0
KCO1 072241Z 34009KT 05/04 A3043 RMK A01 T00540038  RH  090%=      5-min Rain = 0
KCO1 072242Z 35010KT 05/04 A3043 RMK A01 T00530038  RH  090%=      5-min Rain = 0
KCO1 072243Z 34009KT 05/04 A3043 RMK A01 T00530038  RH  090%=      5-min Rain = 0
KCO1 072244Z 34010KT 05/04 A3043 RMK A01 T00520038  RH  090%=      5-min Rain = 0
KCO1 072245Z 35009KT 05/04 A3043 RMK A01 T00510037  RH  090%=      5-min Rain = 0
KCO1 072246Z 34010KT 05/04 A3043 RMK A01 T00510037  RH  090%=      5-min Rain = 0
KCO1 072247Z 34010KT 05/04 A3043 RMK A01 T00510037  RH  090%=      5-min Rain = 0
KCO1 072248Z 34007KT 05/04 A3043 RMK A01 T00510037  RH  091%=      5-min Rain = 0
KCO1 072249Z 34006KT 05/04 A3043 RMK A01 T00510038  RH  091%=      5-min Rain = 0
KCO1 072250Z 34008KT 05/04 A3043 RMK A01 T00520039  RH  091%=      5-min Rain = 0
KCO1 072251Z 34008KT 05/04 A3043 RMK A01 T00520039  RH  091%=      5-min Rain = 0
KCO1 072252Z 34008KT 05/04 A3043 RMK A01 T00520039  RH  091%=      5-min Rain = 0
KCO1 072253Z 35006KT 05/04 A3043 RMK A01 T00510038  RH  091%=      5-min Rain = 0
KCO1 072254Z 36006KT 05/04 A3043 RMK A01 T00510038  RH  091%=      5-min Rain = 0
KCO1 072255Z 36004KT 05/04 A3043 RMK A01 T00510038  RH  091%=      5-min Rain = 0
KCO1 072256Z 36005KT 05/04 A3043 RMK A01 T00510038  RH  091%=      5-min Rain = 0
KCO1 072257Z 00007KT 05/04 A3043 RMK A01 T00510038  RH  091%=      5-min Rain = 0
KCO1 072258Z 00007KT 05/04 A3043 RMK A01 T00500037  RH  091%=      5-min Rain = 0
KCO1 072259Z 36006KT 05/04 A3043 RMK A01 T00500036  RH  090%=      5-min Rain = 0
KCO1 072300Z 35005KT 05/04 A3043 RMK A01 T00500036  RH  090%=      5-min Rain = 0
KCO1 072301Z 35006KT 05/04 A3043 RMK A01 T00510037  RH  090%=      5-min Rain = 0
KCO1 072302Z 35006KT 05/04 A3043 RMK A01 T00510037  RH  090%=      5-min Rain = 0
KCO1 072303Z 35007KT 05/04 A3043 RMK A01 T00510037  RH  090%=      5-min Rain = 0
KCO1 072304Z 35006KT 05/04 A3043 RMK A01 T00520036  RH  090%=      5-min Rain = 0
KCO1 072305Z 34008KT 05/04 A3043 RMK A01 T00510035  RH  089%=      5-min Rain = 0
KCO1 072306Z 34007KT 05/04 A3043 RMK A01 T00520035  RH  089%=      5-min Rain = 0
KCO1 072307Z 34009KT 05/04 A3043 RMK A01 T00530037  RH  089%=      5-min Rain = 0
KCO1 072308Z 34008KT 05/04 A3043 RMK A01 T00530036  RH  089%=      5-min Rain = 0
KCO1 072309Z 35008KT 05/03 A3044 RMK A01 T00520034  RH  088%=      5-min Rain = 0
KCO1 072310Z 35008KT 05/03 A3044 RMK A01 T00520034  RH  088%=      5-min Rain = 0
KCO1 072311Z 34007KT 05/03 A3044 RMK A01 T00520034  RH  088%=      5-min Rain = 0
KCO1 072312Z 34009KT 05/04 A3044 RMK A01 T00520035  RH  088%=      5-min Rain = 0
KCO1 072313Z 34009KT 05/03 A3044 RMK A01 T00520034  RH  088%=      5-min Rain = 0
KCO1 072314Z 35008KT 05/03 A3043 RMK A01 T00520034  RH  088%=      5-min Rain = 0
KCO1 072315Z 35007KT 05/03 A3043 RMK A01 T00520034  RH  088%=      5-min Rain = 0
KCO1 072316Z 35008KT 05/03 A3043 RMK A01 T00520034  RH  088%=      5-min Rain = 0
KCO1 072317Z 35009KT 05/04 A3043 RMK A01 T00520035  RH  089%=      5-min Rain = 0
KCO1 072318Z 36007KT 05/03 A3043 RMK A01 T00520034  RH  088%=      5-min Rain = 0
KCO1 072319Z 35008KT 05/04 A3043 RMK A01 T00520035  RH  088%=      5-min Rain = 0
KCO1 072320Z 34007KT 05/03 A3043 RMK A01 T00520034  RH  089%=      5-min Rain = 0
KCO1 072321Z 34007KT 05/04 A3043 RMK A01 T00520035  RH  089%=      5-min Rain = 0
KCO1 072322Z 34008KT 05/04 A3043 RMK A01 T00530037  RH  089%=      5-min Rain = 0
KCO1 072323Z 33009KT 05/04 A3043 RMK A01 T00530037  RH  090%=      5-min Rain = 0
KCO1 072324Z 33009KT 05/04 A3043 RMK A01 T00530037  RH  090%=      5-min Rain = 0
KCO1 072325Z 35008G13KT 05/04 A3044 RMK A01 T00530038  RH  090%=      5-min Rain = 0
KCO1 072326Z 35010KT 05/04 A3044 RMK A01 T00530037  RH  090%=      5-min Rain = 0
KCO1 072327Z 35009KT 05/04 A3044 RMK A01 T00520036  RH  090%=      5-min Rain = 0
KCO1 072328Z 36008KT 05/04 A3044 RMK A01 T00510035  RH  089%=      5-min Rain = 0
KCO1 072329Z 36009KT 05/03 A3044 RMK A01 T00500034  RH  089%=      5-min Rain = 0
KCO1 072330Z 35008KT 05/04 A3044 RMK A01 T00500035  RH  090%=      5-min Rain = 0
KCO1 072331Z 34008KT 05/04 A3044 RMK A01 T00500035  RH  090%=      5-min Rain = 0
KCO1 072332Z 35009KT 05/04 A3044 RMK A01 T00500035  RH  090%=      5-min Rain = 0
KCO1 072333Z 34008KT 05/04 A3044 RMK A01 T00500035  RH  090%=      5-min Rain = 0
KCO1 072334Z 35009KT 05/04 A3044 RMK A01 T00500035  RH  090%=      5-min Rain = 0
KCO1 072335Z 35008KT 05/04 A3044 RMK A01 T00500035  RH  090%=      5-min Rain = 0
KCO1 072336Z 35008KT 05/04 A3044 RMK A01 T00500035  RH  090%=      5-min Rain = 0
KCO1 072337Z 34008KT 05/04 A3043 RMK A01 T00500035  RH  090%=      5-min Rain = 0
KCO1 072338Z 34009KT 05/04 A3043 RMK A01 T00510036  RH  090%=      5-min Rain = 0
KCO1 072339Z 34009KT 05/04 A3043 RMK A01 T00510036  RH  090%=      5-min Rain = 0
KCO1 072340Z 33007KT 05/04 A3043 RMK A01 T00510037  RH  090%=      5-min Rain = 0
KCO1 072341Z 33009KT 05/04 A3043 RMK A01 T00520039  RH  091%=      5-min Rain = 0
KCO1 072342Z 34008KT 05/04 A3043 RMK A01 T00520039  RH  091%=      5-min Rain = 0
KCO1 072343Z 34009KT 05/04 A3044 RMK A01 T00530039  RH  091%=      5-min Rain = 0
KCO1 072344Z 34011KT 05/04 A3044 RMK A01 T00530039  RH  091%=      5-min Rain = 0
KCO1 072345Z 35011KT 05/04 A3044 RMK A01 T00510037  RH  090%=      5-min Rain = 0
KCO1 072346Z 35010KT 05/04 A3044 RMK A01 T00510036  RH  090%=      5-min Rain = 0
KCO1 072347Z 34010KT 05/04 A3044 RMK A01 T00500035  RH  090%=      5-min Rain = 0
KCO1 072348Z 35009KT 05/03 A3044 RMK A01 T00500034  RH  090%=      5-min Rain = 0
KCO1 072349Z 35009KT 05/03 A3044 RMK A01 T00500033  RH  089%=      5-min Rain = 0
KCO1 072350Z 35007KT 05/03 A3044 RMK A01 T00490033  RH  089%=      5-min Rain = 0
KCO1 072351Z 34007KT 05/03 A3044 RMK A01 T00500034  RH  089%=      5-min Rain = 0
KCO1 072352Z 34007KT 05/03 A3044 RMK A01 T00500034  RH  089%=      5-min Rain = 0
KCO1 072353Z 34007KT 05/03 A3044 RMK A01 T00510034  RH  089%=      5-min Rain = 0
KCO1 072354Z 34008KT 05/03 A3044 RMK A01 T00510034  RH  089%=      5-min Rain = 0
KCO1 072355Z 34007KT 05/03 A3044 RMK A01 T00510033  RH  088%=      5-min Rain = 0
KCO1 072356Z 34007KT 05/03 A3044 RMK A01 T00510033  RH  088%=      5-min Rain = 0
KCO1 072357Z 33006KT 05/03 A3044 RMK A01 T00510033  RH  088%=      5-min Rain = 0
KCO1 072358Z 34008KT 05/03 A3044 RMK A01 T00520033  RH  088%=      5-min Rain = 0
KCO1 072359Z 34007KT 05/03 A3044 RMK A01 T00520033  RH  087%=      5-min Rain = 0
KCO1 080000Z 35008KT 05/03 A3044 RMK A01 T00530033  RH  087%=      5-min Rain = 0
KCO1 080001Z 35008KT 05/03 A3044 RMK A01 T00530033  RH  087%=      5-min Rain = 0
KCO1 080002Z 34008KT 05/03 A3044 RMK A01 T00530032  RH  087%=      5-min Rain = 0
KCO1 080003Z 35008KT 05/03 A3044 RMK A01 T00530031  RH  086%=      5-min Rain = 0
KCO1 080004Z 35008KT 05/03 A3044 RMK A01 T00520031  RH  086%=      5-min Rain = 0
KCO1 080005Z 35007KT 05/03 A3045 RMK A01 T00520031  RH  086%=      5-min Rain = 0
KCO1 080006Z 35005KT 05/03 A3045 RMK A01 T00530032  RH  087%=      5-min Rain = 0
KCO1 080007Z 36006KT 05/03 A3045 RMK A01 T00530033  RH  087%=      5-min Rain = 0
KCO1 080008Z 35006KT 05/03 A3045 RMK A01 T00530034  RH  087%=      5-min Rain = 0
KCO1 080009Z 35008KT 05/03 A3044 RMK A01 T00530034  RH  087%=      5-min Rain = 0
KCO1 080010Z 35009KT 05/03 A3044 RMK A01 T00530033  RH  087%=      5-min Rain = 0
KCO1 080011Z 35009KT 05/03 A3044 RMK A01 T00520032  RH  086%=      5-min Rain = 0
KCO1 080012Z 35009KT 05/03 A3044 RMK A01 T00520030  RH  086%=      5-min Rain = 0
KCO1 080013Z 35008KT 05/03 A3044 RMK A01 T00520029  RH  085%=      5-min Rain = 0
KCO1 080014Z 35008KT 05/03 A3045 RMK A01 T00530030  RH  085%=      5-min Rain = 0
KCO1 080015Z 35007KT 05/03 A3045 RMK A01 T00520030  RH  085%=      5-min Rain = 0
KCO1 080016Z 35008KT 05/03 A3045 RMK A01 T00520030  RH  085%=      5-min Rain = 0
KCO1 080017Z 35008KT 05/03 A3045 RMK A01 T00520030  RH  085%=      5-min Rain = 0
KCO1 080018Z 36007KT 05/03 A3045 RMK A01 T00530030  RH  085%=      5-min Rain = 0
KCO1 080019Z 00007KT 05/03 A3045 RMK A01 T00520030  RH  085%=      5-min Rain = 0
KCO1 080020Z 36008KT 05/03 A3045 RMK A01 T00530030  RH  085%=      5-min Rain = 0
KCO1 080021Z 36008KT 05/03 A3045 RMK A01 T00520030  RH  085%=      5-min Rain = 0
KCO1 080022Z 36006KT 05/03 A3045 RMK A01 T00520030  RH  085%=      5-min Rain = 0
KCO1 080023Z 36006KT 05/03 A3045 RMK A01 T00520030  RH  085%=      5-min Rain = 0
KCO1 080024Z 36006KT 05/03 A3045 RMK A01 T00520030  RH  086%=      5-min Rain = 0
KCO1 080025Z 35006KT 05/03 A3045 RMK A01 T00530030  RH  086%=      5-min Rain = 0
KCO1 080026Z 35008KT 05/03 A3045 RMK A01 T00530030  RH  086%=      5-min Rain = 0
KCO1 080027Z 34008KT 05/03 A3045 RMK A01 T00530031  RH  086%=      5-min Rain = 0
KCO1 080028Z 35008KT 05/03 A3045 RMK A01 T00520030  RH  086%=      5-min Rain = 0
KCO1 080029Z 35007KT 05/03 A3045 RMK A01 T00520030  RH  085%=      5-min Rain = 0
KCO1 080030Z 34006KT 05/03 A3046 RMK A01 T00530030  RH  085%=      5-min Rain = 0
KCO1 080031Z 34007KT 05/03 A3046 RMK A01 T00530031  RH  086%=      5-min Rain = 0
KCO1 080032Z 34008KT 05/03 A3046 RMK A01 T00530031  RH  086%=      5-min Rain = 0
KCO1 080033Z 34010KT 05/03 A3046 RMK A01 T00530031  RH  086%=      5-min Rain = 0
KCO1 080034Z 34010KT 05/03 A3046 RMK A01 T00530030  RH  085%=      5-min Rain = 0
KCO1 080035Z 34009KT 05/03 A3045 RMK A01 T00520029  RH  085%=      5-min Rain = 0
KCO1 080036Z 35007KT 05/03 A3045 RMK A01 T00520029  RH  085%=      5-min Rain = 0
KCO1 080037Z 35008KT 05/03 A3045 RMK A01 T00520029  RH  085%=      5-min Rain = 0
KCO1 080038Z 35007KT 05/03 A3045 RMK A01 T00520030  RH  086%=      5-min Rain = 0
KCO1 080039Z 35008KT 05/03 A3045 RMK A01 T00520031  RH  086%=      5-min Rain = 0
KCO1 080040Z 35008KT 05/03 A3045 RMK A01 T00520031  RH  086%=      5-min Rain = 0
KCO1 080041Z 35007KT 05/03 A3045 RMK A01 T00510030  RH  086%=      5-min Rain = 0
KCO1 080042Z 35008KT 05/03 A3045 RMK A01 T00510031  RH  087%=      5-min Rain = 0
KCO1 080043Z 36008KT 05/03 A3045 RMK A01 T00510031  RH  087%=      5-min Rain = 0
KCO1 080044Z 36009KT 05/03 A3045 RMK A01 T00510031  RH  087%=      5-min Rain = 0
KCO1 080045Z 35008KT 05/03 A3045 RMK A01 T00500031  RH  087%=      5-min Rain = 0
KCO1 080046Z 35008KT 05/03 A3045 RMK A01 T00500031  RH  088%=      5-min Rain = 0
KCO1 080047Z 35007KT 05/03 A3045 RMK A01 T00500031  RH  088%=      5-min Rain = 0
KCO1 080048Z 35006KT 05/03 A3045 RMK A01 T00500032  RH  088%=      5-min Rain = 0
KCO1 080049Z 35006KT 05/03 A3045 RMK A01 T00500032  RH  089%=      5-min Rain = 0
KCO1 080050Z 35006KT 05/03 A3045 RMK A01 T00500033  RH  089%=      5-min Rain = 0
KCO1 080051Z 35008KT 05/04 A3045 RMK A01 T00510035  RH  090%=      5-min Rain = 0
KCO1 080052Z 35008KT 05/03 A3045 RMK A01 T00500034  RH  089%=      5-min Rain = 0
KCO1 080053Z 35007KT 05/03 A3045 RMK A01 T00500034  RH  089%=      5-min Rain = 0
KCO1 080054Z 36007KT 05/03 A3045 RMK A01 T00500034  RH  089%=      5-min Rain = 0
KCO1 080055Z 35009KT 05/03 A3045 RMK A01 T00490033  RH  089%=      5-min Rain = 0
KCO1 080056Z 35008KT 05/03 A3045 RMK A01 T00490033  RH  089%=      5-min Rain = 0
KCO1 080057Z 34007KT 05/03 A3045 RMK A01 T00490033  RH  090%=      5-min Rain = 0
KCO1 080058Z 35006KT 05/03 A3045 RMK A01 T00490034  RH  090%=      5-min Rain = 0
KCO1 080059Z 35005KT 05/04 A3045 RMK A01 T00500036  RH  091%=      5-min Rain = 0
KCO1 080100Z 36006KT 05/04 A3045 RMK A01 T00500036  RH  091%=      5-min Rain = 0
KCO1 080101Z 00007KT 05/04 A3045 RMK A01 T00500037  RH  091%=      5-min Rain = 0
KCO1 080102Z 35005KT 05/04 A3045 RMK A01 T00500037  RH  091%=      5-min Rain = 0
KCO1 080103Z 00006KT 05/04 A3045 RMK A01 T00500037  RH  092%=      5-min Rain = 0
KCO1 080104Z 00006KT 05/04 A3045 RMK A01 T00490037  RH  092%=      5-min Rain = 0
KCO1 080105Z 00006KT 05/04 A3045 RMK A01 T00490037  RH  092%=      5-min Rain = 0
KCO1 080106Z 36005KT 05/04 A3045 RMK A01 T00490037  RH  092%=      5-min Rain = 0
KCO1 080107Z 00005KT 05/04 A3045 RMK A01 T00490038  RH  093%=      5-min Rain = 0
KCO1 080108Z 36005KT 05/04 A3045 RMK A01 T00490038  RH  093%=      5-min Rain = 0
KCO1 080109Z 35006KT 05/04 A3045 RMK A01 T00490038  RH  093%=      5-min Rain = 0
KCO1 080110Z 36007KT 05/04 A3045 RMK A01 T00480038  RH  093%=      5-min Rain = 0
KCO1 080111Z 35004KT 05/04 A3045 RMK A01 T00480037  RH  093%=      5-min Rain = 0
KCO1 080112Z 35004KT 05/04 A3045 RMK A01 T00480038  RH  093%=      5-min Rain = 0
KCO1 080113Z 01005KT 05/04 A3045 RMK A01 T00480038  RH  093%=      5-min Rain = 0
KCO1 080114Z 01004KT 05/04 A3045 RMK A01 T00480038  RH  093%=      5-min Rain = 0
KCO1 080115Z 00005KT 05/04 A3045 RMK A01 T00490039  RH  094%=      5-min Rain = 0
KCO1 080116Z 00004KT 05/04 A3045 RMK A01 T00480039  RH  094%=      5-min Rain = 0
KCO1 080117Z 01006KT 05/04 A3045 RMK A01 T00480039  RH  094%=      5-min Rain = 0
KCO1 080118Z 36006KT 05/04 A3045 RMK A01 T00480039  RH  094%=      5-min Rain = 0
KCO1 080119Z 35005KT 05/04 A3045 RMK A01 T00480038  RH  094%=      5-min Rain = 0
KCO1 080120Z 00006KT 05/04 A3045 RMK A01 T00470038  RH  094%=      5-min Rain = 0
KCO1 080121Z 35006KT 05/04 A3045 RMK A01 T00470038  RH  094%=      5-min Rain = 0
KCO1 080122Z 36006KT 05/04 A3045 RMK A01 T00460037  RH  094%=      5-min Rain = 0
KCO1 080123Z 35006KT 05/04 A3045 RMK A01 T00450036  RH  094%=      5-min Rain = 0
KCO1 080124Z 35007KT 05/04 A3045 RMK A01 T00460036  RH  094%=      5-min Rain = 0
KCO1 080125Z 35007KT 05/04 A3045 RMK A01 T00460037  RH  094%=      5-min Rain = 0
KCO1 080126Z 35007KT 05/04 A3045 RMK A01 T00450036  RH  094%=      5-min Rain = 0
KCO1 080127Z 35006KT 05/04 A3045 RMK A01 T00450036  RH  093%=      5-min Rain = 0
KCO1 080128Z 34007KT 05/04 A3045 RMK A01 T00450035  RH  093%=      5-min Rain = 0
KCO1 080129Z 34007KT 05/04 A3045 RMK A01 T00450035  RH  093%=      5-min Rain = 0
KCO1 080130Z 34005KT 05/04 A3045 RMK A01 T00460036  RH  093%=      5-min Rain = 0
KCO1 080131Z 34006KT 05/04 A3045 RMK A01 T00460036  RH  093%=      5-min Rain = 0
KCO1 080132Z 35006KT 05/04 A3045 RMK A01 T00460036  RH  093%=      5-min Rain = 0
KCO1 080133Z 35005KT 05/04 A3045 RMK A01 T00460036  RH  093%=      5-min Rain = 0
KCO1 080134Z 35004KT 05/04 A3045 RMK A01 T00460036  RH  093%=      5-min Rain = 0
KCO1 080135Z 34006KT 05/04 A3045 RMK A01 T00470037  RH  093%=      5-min Rain = 0
KCO1 080136Z 34006KT 05/04 A3045 RMK A01 T00470037  RH  093%=      5-min Rain = 0
KCO1 080137Z 35006KT 05/04 A3045 RMK A01 T00470036  RH  093%=      5-min Rain = 0
KCO1 080138Z 34006KT 05/04 A3046 RMK A01 T00460036  RH  093%=      5-min Rain = 0
KCO1 080139Z 35006KT 05/04 A3046 RMK A01 T00470036  RH  093%=      5-min Rain = 0
KCO1 080140Z 35005KT 05/04 A3046 RMK A01 T00470036  RH  093%=      5-min Rain = 0
KCO1 080141Z 35005KT 05/04 A3046 RMK A01 T00470037  RH  093%=      5-min Rain = 0
KCO1 080142Z 34006KT 05/04 A3046 RMK A01 T00470037  RH  093%=      5-min Rain = 0
KCO1 080143Z 34006KT 05/04 A3046 RMK A01 T00480037  RH  093%=      5-min Rain = 0
KCO1 080144Z 35007KT 05/04 A3046 RMK A01 T00470037  RH  093%=      5-min Rain = 0
KCO1 080145Z 35007KT 05/04 A3046 RMK A01 T00470037  RH  093%=      5-min Rain = 0
KCO1 080146Z 34006KT 05/04 A3046 RMK A01 T00470036  RH  093%=      5-min Rain = 0
KCO1 080147Z 34006KT 05/04 A3046 RMK A01 T00470037  RH  093%=      5-min Rain = 0
KCO1 080148Z 33004KT 05/04 A3046 RMK A01 T00470037  RH  093%=      5-min Rain = 0
KCO1 080149Z 34006KT 05/04 A3046 RMK A01 T00480038  RH  093%=      5-min Rain = 0
KCO1 080150Z 34006KT 05/04 A3046 RMK A01 T00490039  RH  093%=      5-min Rain = 0
KCO1 080151Z 34007KT 05/04 A3046 RMK A01 T00490039  RH  093%=      5-min Rain = 0
KCO1 080152Z 34007KT 05/04 A3046 RMK A01 T00480038  RH  093%=      5-min Rain = 0
KCO1 080153Z 35006KT 05/04 A3046 RMK A01 T00480038  RH  093%=      5-min Rain = 0
KCO1 080154Z 34005KT 05/04 A3046 RMK A01 T00480037  RH  093%=      5-min Rain = 0
KCO1 080155Z 34004KT 05/04 A3046 RMK A01 T00470037  RH  093%=      5-min Rain = 0
KCO1 080156Z 34004KT 05/04 A3046 RMK A01 T00480038  RH  093%=      5-min Rain = 0
KCO1 080157Z 33005KT 05/04 A3046 RMK A01 T00480038  RH  093%=      5-min Rain = 0
KCO1 080158Z 33005KT 05/04 A3046 RMK A01 T00480038  RH  093%=      5-min Rain = 0
KCO1 080159Z 33004KT 05/04 A3047 RMK A01 T00480037  RH  093%=      5-min Rain = 0
KCO1 080200Z 33004KT 05/04 A3047 RMK A01 T00480037  RH  093%=      5-min Rain = 0
KCO1 080201Z 32004KT 05/04 A3047 RMK A01 T00480037  RH  093%=      5-min Rain = 0
KCO1 080202Z 33005KT 05/04 A3047 RMK A01 T00480037  RH  092%=      5-min Rain = 0
KCO1 080203Z 33006KT 05/04 A3047 RMK A01 T00480036  RH  092%=      5-min Rain = 0
KCO1 080204Z 33006KT 05/04 A3047 RMK A01 T00480036  RH  092%=      5-min Rain = 0
KCO1 080205Z 34005KT 05/04 A3047 RMK A01 T00490037  RH  092%=      5-min Rain = 0
KCO1 080206Z 34005KT 05/04 A3047 RMK A01 T00490036  RH  091%=      5-min Rain = 0
KCO1 080207Z 34004KT 05/04 A3047 RMK A01 T00490036  RH  091%=      5-min Rain = 0
KCO1 080208Z 34005KT 05/04 A3047 RMK A01 T00500037  RH  091%=      5-min Rain = 0
KCO1 080209Z 34005KT 05/04 A3048 RMK A01 T00500037  RH  091%=      5-min Rain = 0
KCO1 080210Z 35007KT 05/04 A3048 RMK A01 T00500036  RH  091%=      5-min Rain = 0
KCO1 080211Z 34006KT 05/04 A3048 RMK A01 T00500035  RH  090%=      5-min Rain = 0
KCO1 080212Z 34006KT 05/04 A3048 RMK A01 T00500035  RH  090%=      5-min Rain = 0
KCO1 080213Z 33006KT 05/03 A3048 RMK A01 T00500034  RH  089%=      5-min Rain = 0
KCO1 080214Z 32007KT 05/03 A3048 RMK A01 T00500033  RH  089%=      5-min Rain = 0
KCO1 080215Z 33006KT 05/03 A3048 RMK A01 T00500033  RH  088%=      5-min Rain = 0
KCO1 080216Z 33007KT 05/03 A3048 RMK A01 T00500032  RH  088%=      5-min Rain = 0
KCO1 080217Z 34007KT 05/03 A3048 RMK A01 T00510032  RH  088%=      5-min Rain = 0
KCO1 080218Z 34007KT 05/03 A3048 RMK A01 T00510032  RH  088%=      5-min Rain = 0
KCO1 080219Z 35005KT 05/03 A3048 RMK A01 T00510032  RH  088%=      5-min Rain = 0
KCO1 080220Z 34006KT 05/03 A3048 RMK A01 T00510033  RH  088%=      5-min Rain = 0
KCO1 080221Z 34007KT 05/03 A3047 RMK A01 T00520033  RH  088%=      5-min Rain = 0
KCO1 080222Z 34005KT 05/03 A3047 RMK A01 T00510032  RH  087%=      5-min Rain = 0
KCO1 080223Z 34005KT 05/03 A3047 RMK A01 T00510032  RH  088%=      5-min Rain = 0
KCO1 080224Z 34007KT 05/03 A3048 RMK A01 T00520033  RH  088%=      5-min Rain = 0
KCO1 080225Z 34005KT 05/03 A3048 RMK A01 T00520033  RH  087%=      5-min Rain = 0
KCO1 080226Z 33006KT 05/03 A3048 RMK A01 T00520033  RH  088%=      5-min Rain = 0
KCO1 080227Z 33005KT 05/03 A3048 RMK A01 T00520033  RH  088%=      5-min Rain = 0
KCO1 080228Z 33005KT 05/03 A3048 RMK A01 T00520034  RH  088%=      5-min Rain = 0
KCO1 080229Z 33005KT 05/04 A3048 RMK A01 T00530035  RH  088%=      5-min Rain = 0
KCO1 080230Z 33006KT 05/04 A3048 RMK A01 T00530035  RH  088%=      5-min Rain = 0
KCO1 080231Z 33005KT 05/03 A3048 RMK A01 T00520034  RH  088%=      5-min Rain = 0
KCO1 080232Z 33005KT 05/03 A3048 RMK A01 T00520034  RH  088%=      5-min Rain = 0
KCO1 080233Z 33005KT 05/03 A3048 RMK A01 T00530034  RH  088%=      5-min Rain = 0
KCO1 080234Z 34005KT 05/04 A3048 RMK A01 T00520035  RH  088%=      5-min Rain = 0
KCO1 080235Z 34005KT 05/03 A3048 RMK A01 T00520034  RH  088%=      5-min Rain = 0
KCO1 080236Z 34004KT 05/03 A3048 RMK A01 T00520033  RH  087%=      5-min Rain = 0
KCO1 080237Z 34004KT 05/03 A3048 RMK A01 T00520033  RH  088%=      5-min Rain = 0
KCO1 080238Z 33005KT 05/03 A3048 RMK A01 T00520033  RH  088%=      5-min Rain = 0
KCO1 080239Z 33005KT 05/03 A3048 RMK A01 T00520033  RH  088%=      5-min Rain = 0
KCO1 080240Z 34005KT 05/03 A3048 RMK A01 T00520034  RH  088%=      5-min Rain = 0
KCO1 080241Z 34005KT 05/03 A3048 RMK A01 T00520034  RH  088%=      5-min Rain = 0
KCO1 080242Z 35006KT 05/03 A3048 RMK A01 T00520033  RH  088%=      5-min Rain = 0
KCO1 080243Z 35008KT 05/03 A3048 RMK A01 T00520032  RH  087%=      5-min Rain = 0
KCO1 080244Z 34008KT 05/03 A3048 RMK A01 T00510031  RH  087%=      5-min Rain = 0
KCO1 080245Z 35008KT 05/03 A3048 RMK A01 T00500029  RH  086%=      5-min Rain = 0
KCO1 080246Z 35008KT 05/03 A3048 RMK A01 T00500029  RH  086%=      5-min Rain = 0
KCO1 080247Z 35007KT 05/03 A3048 RMK A01 T00500029  RH  086%=      5-min Rain = 0
KCO1 080248Z 35008KT 05/03 A3048 RMK A01 T00500029  RH  086%=      5-min Rain = 0
KCO1 080249Z 35007KT 05/03 A3048 RMK A01 T00500029  RH  086%=      5-min Rain = 0
KCO1 080250Z 35006KT 05/03 A3048 RMK A01 T00500028  RH  086%=      5-min Rain = 0
KCO1 080251Z 35005KT 05/03 A3048 RMK A01 T00500029  RH  086%=      5-min Rain = 0
KCO1 080252Z 35005KT 05/03 A3048 RMK A01 T00510030  RH  086%=      5-min Rain = 0
KCO1 080253Z 35005KT 05/03 A3048 RMK A01 T00510030  RH  086%=      5-min Rain = 0
KCO1 080254Z 35006KT 05/03 A3048 RMK A01 T00510030  RH  087%=      5-min Rain = 0
KCO1 080255Z 35005KT 05/03 A3048 RMK A01 T00510030  RH  087%=      5-min Rain = 0
KCO1 080256Z 36004KT 05/03 A3048 RMK A01 T00510030  RH  087%=      5-min Rain = 0
KCO1 080257Z 35004KT 05/03 A3048 RMK A01 T00510030  RH  087%=      5-min Rain = 0
KCO1 080258Z 36003KT 05/03 A3048 RMK A01 T00510031  RH  087%=      5-min Rain = 0
KCO1 080259Z 35004KT 05/03 A3048 RMK A01 T00510031  RH  087%=      5-min Rain = 0
KCO1 080300Z 35004KT 05/03 A3048 RMK A01 T00510032  RH  087%=      5-min Rain = 0
KCO1 080301Z 35004KT 05/03 A3048 RMK A01 T00510032  RH  087%=      5-min Rain = 0
KCO1 080302Z 36004KT 05/03 A3048 RMK A01 T00510032  RH  087%=      5-min Rain = 0
KCO1 080303Z 36004KT 05/03 A3048 RMK A01 T00510031  RH  087%=      5-min Rain = 0
KCO1 080304Z 36005KT 05/03 A3048 RMK A01 T00510031  RH  087%=      5-min Rain = 0
KCO1 080305Z 35006KT 05/03 A3048 RMK A01 T00500029  RH  087%=      5-min Rain = 0
KCO1 080306Z 36005KT 05/03 A3048 RMK A01 T00500029  RH  086%=      5-min Rain = 0
KCO1 080307Z 00004KT 05/03 A3048 RMK A01 T00500029  RH  086%=      5-min Rain = 0
KCO1 080308Z 36005KT 05/03 A3048 RMK A01 T00500029  RH  086%=      5-min Rain = 0
KCO1 080309Z 35005KT 05/03 A3048 RMK A01 T00500029  RH  086%=      5-min Rain = 0
KCO1 080310Z 35004KT 05/03 A3048 RMK A01 T00500029  RH  086%=      5-min Rain = 0
KCO1 080311Z 35005KT 05/03 A3048 RMK A01 T00510030  RH  086%=      5-min Rain = 0
KCO1 080312Z 36007KT 05/03 A3048 RMK A01 T00510029  RH  086%=      5-min Rain = 0
KCO1 080313Z 35007KT 05/03 A3048 RMK A01 T00500028  RH  086%=      5-min Rain = 0
KCO1 080314Z 36006KT 05/03 A3048 RMK A01 T00500027  RH  085%=      5-min Rain = 0
KCO1 080315Z 00007KT 05/03 A3048 RMK A01 T00500027  RH  085%=      5-min Rain = 0
KCO1 080316Z 36006KT 05/03 A3048 RMK A01 T00500026  RH  084%=      5-min Rain = 0
KCO1 080317Z 35006KT 05/03 A3048 RMK A01 T00500026  RH  085%=      5-min Rain = 0
KCO1 080318Z 36006KT 05/03 A3048 RMK A01 T00500027  RH  085%=      5-min Rain = 0
KCO1 080319Z 36007KT 05/03 A3048 RMK A01 T00500027  RH  085%=      5-min Rain = 0
KCO1 080320Z 36008KT 05/03 A3048 RMK A01 T00500027  RH  085%=      5-min Rain = 0
KCO1 080321Z 36006KT 05/03 A3048 RMK A01 T00500027  RH  085%=      5-min Rain = 0
KCO1 080322Z 35006KT 05/03 A3048 RMK A01 T00500027  RH  085%=      5-min Rain = 0
KCO1 080323Z 35008KT 05/03 A3048 RMK A01 T00500027  RH  085%=      5-min Rain = 0
KCO1 080324Z 00007KT 05/03 A3048 RMK A01 T00500027  RH  085%=      5-min Rain = 0
KCO1 080325Z 36007KT 05/03 A3048 RMK A01 T00500028  RH  085%=      5-min Rain = 0
KCO1 080326Z 36008KT 05/03 A3048 RMK A01 T00500028  RH  085%=      5-min Rain = 0
KCO1 080327Z 35007KT 05/03 A3048 RMK A01 T00500027  RH  085%=      5-min Rain = 0
KCO1 080328Z 35007KT 05/03 A3048 RMK A01 T00500028  RH  086%=      5-min Rain = 0
KCO1 080329Z 35007KT 05/03 A3048 RMK A01 T00500028  RH  086%=      5-min Rain = 0
KCO1 080330Z 35009KT 05/03 A3048 RMK A01 T00500028  RH  086%=      5-min Rain = 0
KCO1 080331Z 35009KT 05/03 A3048 RMK A01 T00500028  RH  086%=      5-min Rain = 0
KCO1 080332Z 35007KT 05/03 A3048 RMK A01 T00500027  RH  085%=      5-min Rain = 0
KCO1 080333Z 35008KT 05/03 A3048 RMK A01 T00500029  RH  086%=      5-min Rain = 0
KCO1 080334Z 35007KT 05/03 A3048 RMK A01 T00500028  RH  086%=      5-min Rain = 0
KCO1 080335Z 35008KT 05/03 A3048 RMK A01 T00500029  RH  086%=      5-min Rain = 0
KCO1 080336Z 35009KT 05/03 A3048 RMK A01 T00500028  RH  086%=      5-min Rain = 0
KCO1 080337Z 35006KT 05/03 A3048 RMK A01 T00500027  RH  086%=      5-min Rain = 0
KCO1 080338Z 36006KT 05/03 A3048 RMK A01 T00500028  RH  086%=      5-min Rain = 0
KCO1 080339Z 36007KT 05/03 A3049 RMK A01 T00500028  RH  086%=      5-min Rain = 0
KCO1 080340Z 00007KT 05/03 A3049 RMK A01 T00490028  RH  086%=      5-min Rain = 0
KCO1 080341Z 00007KT 05/03 A3049 RMK A01 T00490027  RH  086%=      5-min Rain = 0
KCO1 080342Z 36007KT 05/03 A3048 RMK A01 T00490027  RH  086%=      5-min Rain = 0
KCO1 080343Z 36007KT 05/03 A3048 RMK A01 T00490027  RH  086%=      5-min Rain = 0
KCO1 080344Z 36007KT 05/03 A3048 RMK A01 T00490027  RH  085%=      5-min Rain = 0
KCO1 080345Z 00007KT 05/03 A3048 RMK A01 T00490027  RH  085%=      5-min Rain = 0
KCO1 080346Z 35007KT 05/03 A3048 RMK A01 T00490027  RH  085%=      5-min Rain = 0
KCO1 080347Z 35007KT 05/03 A3048 RMK A01 T00500027  RH  085%=      5-min Rain = 0
KCO1 080348Z 35007KT 05/03 A3048 RMK A01 T00490027  RH  086%=      5-min Rain = 0
KCO1 080349Z 35006KT 05/03 A3048 RMK A01 T00490027  RH  086%=      5-min Rain = 0
KCO1 080350Z 00005KT 05/03 A3048 RMK A01 T00490028  RH  086%=      5-min Rain = 0
KCO1 080351Z 35006KT 05/03 A3048 RMK A01 T00500028  RH  086%=      5-min Rain = 0
KCO1 080352Z 35007KT 05/03 A3048 RMK A01 T00500029  RH  086%=      5-min Rain = 0
KCO1 080353Z 35006KT 05/03 A3049 RMK A01 T00500028  RH  086%=      5-min Rain = 0
KCO1 080354Z 36005KT 05/03 A3049 RMK A01 T00500029  RH  086%=      5-min Rain = 0
KCO1 080355Z 35005KT 05/03 A3049 RMK A01 T00500029  RH  086%=      5-min Rain = 0
KCO1 080356Z 35005KT 05/03 A3049 RMK A01 T00500030  RH  087%=      5-min Rain = 0
KCO1 080357Z 35007KT 05/03 A3049 RMK A01 T00490030  RH  087%=      5-min Rain = 0
KCO1 080358Z 35007KT 05/03 A3049 RMK A01 T00500030  RH  087%=      5-min Rain = 0
KCO1 080359Z 35007KT 05/03 A3049 RMK A01 T00490028  RH  086%=      5-min Rain = 0
KCO1 080400Z 35007KT 05/03 A3049 RMK A01 T00490028  RH  086%=      5-min Rain = 0
KCO1 080401Z 35007KT 05/03 A3049 RMK A01 T00490028  RH  087%=      5-min Rain = 0
KCO1 080402Z 35005KT 05/03 A3049 RMK A01 T00490028  RH  086%=      5-min Rain = 0
KCO1 080403Z 36004KT 05/03 A3049 RMK A01 T00490028  RH  086%=      5-min Rain = 0
KCO1 080404Z 00004KT 05/03 A3049 RMK A01 T00490029  RH  087%=      5-min Rain = 0
KCO1 080405Z 36006KT 05/03 A3049 RMK A01 T00500030  RH  087%=      5-min Rain = 0
KCO1 080406Z 36006KT 05/03 A3049 RMK A01 T00490029  RH  087%=      5-min Rain = 0
KCO1 080407Z 36005KT 05/03 A3049 RMK A01 T00490029  RH  087%=      5-min Rain = 0
KCO1 080408Z 36005KT 05/03 A3049 RMK A01 T00490029  RH  087%=      5-min Rain = 0
KCO1 080409Z 00005KT 05/03 A3049 RMK A01 T00490029  RH  087%=      5-min Rain = 0
KCO1 080410Z 01006KT 05/03 A3049 RMK A01 T00490029  RH  087%=      5-min Rain = 0
KCO1 080411Z 36006KT 05/03 A3049 RMK A01 T00490029  RH  087%=      5-min Rain = 0
KCO1 080412Z 00005KT 05/03 A3049 RMK A01 T00480027  RH  086%=      5-min Rain = 0
KCO1 080413Z 00005KT 05/03 A3049 RMK A01 T00490027  RH  086%=      5-min Rain = 0
KCO1 080414Z 00005KT 05/03 A3049 RMK A01 T00480027  RH  086%=      5-min Rain = 0
KCO1 080415Z 01004KT 05/03 A3049 RMK A01 T00480027  RH  086%=      5-min Rain = 0
KCO1 080416Z 36004KT 05/03 A3049 RMK A01 T00480027  RH  086%=      5-min Rain = 0
KCO1 080417Z 36004KT 05/03 A3049 RMK A01 T00490028  RH  086%=      5-min Rain = 0
KCO1 080418Z 36003KT 05/03 A3049 RMK A01 T00490028  RH  086%=      5-min Rain = 0
KCO1 080419Z 36004KT 05/03 A3049 RMK A01 T00490028  RH  086%=      5-min Rain = 0
KCO1 080420Z 00004KT 05/03 A3048 RMK A01 T00490028  RH  086%=      5-min Rain = 0
KCO1 080421Z 36003KT 05/03 A3049 RMK A01 T00490029  RH  087%=      5-min Rain = 0
KCO1 080422Z 00005KT 05/03 A3049 RMK A01 T00490029  RH  087%=      5-min Rain = 0
KCO1 080423Z 36005KT 05/03 A3049 RMK A01 T00490029  RH  087%=      5-min Rain = 0
KCO1 080424Z 36004KT 05/03 A3049 RMK A01 T00490029  RH  087%=      5-min Rain = 0
KCO1 080425Z 35004KT 05/03 A3049 RMK A01 T00490029  RH  087%=      5-min Rain = 0
KCO1 080426Z 35005KT 05/03 A3049 RMK A01 T00490029  RH  087%=      5-min Rain = 0
KCO1 080427Z 36005KT 05/03 A3048 RMK A01 T00490028  RH  086%=      5-min Rain = 0
KCO1 080428Z 00005KT 05/03 A3048 RMK A01 T00480028  RH  086%=      5-min Rain = 0
KCO1 080429Z 36006KT 05/03 A3049 RMK A01 T00480027  RH  086%=      5-min Rain = 0.01
KCO1 080430Z 35005KT 05/03 A3049 RMK A01 T00480028  RH  086%=      5-min Rain = 0
KCO1 080431Z 35006KT 05/03 A3049 RMK A01 T00480028  RH  087%=      5-min Rain = 0
KCO1 080432Z 35006KT 05/03 A3049 RMK A01 T00480029  RH  087%=      5-min Rain = 0
KCO1 080433Z 35005KT 05/03 A3049 RMK A01 T00480029  RH  087%=      5-min Rain = 0
KCO1 080434Z 35005KT 05/03 A3049 RMK A01 T00480029  RH  087%=      5-min Rain = 0
KCO1 080435Z 35005KT 05/03 A3049 RMK A01 T00480029  RH  088%=      5-min Rain = 0
KCO1 080436Z 35004KT 05/03 A3049 RMK A01 T00480029  RH  088%=      5-min Rain = 0
KCO1 080437Z 34003KT 05/03 A3049 RMK A01 T00480029  RH  088%=      5-min Rain = 0
KCO1 080438Z 35004KT 05/03 A3049 RMK A01 T00480031  RH  088%=      5-min Rain = 0
KCO1 080439Z 34005KT 05/03 A3049 RMK A01 T00480031  RH  089%=      5-min Rain = 0
KCO1 080440Z 34006KT 05/03 A3049 RMK A01 T00480031  RH  088%=      5-min Rain = 0
KCO1 080441Z 35005KT 05/03 A3049 RMK A01 T00480029  RH  088%=      5-min Rain = 0
KCO1 080442Z 35005KT 05/03 A3049 RMK A01 T00480028  RH  087%=      5-min Rain = 0
KCO1 080443Z 35005KT 05/03 A3049 RMK A01 T00480028  RH  087%=      5-min Rain = 0
KCO1 080444Z 35005KT 05/03 A3049 RMK A01 T00480027  RH  087%=      5-min Rain = 0
KCO1 080445Z 36005KT 05/03 A3049 RMK A01 T00470027  RH  087%=      5-min Rain = 0
KCO1 080446Z 35004KT 05/03 A3049 RMK A01 T00480028  RH  087%=      5-min Rain = 0
KCO1 080447Z 36004KT 05/03 A3049 RMK A01 T00480029  RH  087%=      5-min Rain = 0
KCO1 080448Z 35006KT 05/03 A3049 RMK A01 T00490030  RH  088%=      5-min Rain = 0
KCO1 080449Z 35005KT 05/03 A3049 RMK A01 T00480029  RH  087%=      5-min Rain = 0
KCO1 080450Z 35004KT 05/03 A3049 RMK A01 T00480028  RH  087%=      5-min Rain = 0
KCO1 080451Z 35005KT 05/03 A3049 RMK A01 T00480028  RH  087%=      5-min Rain = 0
KCO1 080452Z 35005KT 05/03 A3049 RMK A01 T00480028  RH  087%=      5-min Rain = 0
KCO1 080453Z 00003KT 05/03 A3049 RMK A01 T00480028  RH  087%=      5-min Rain = 0
KCO1 080454Z 35004KT 05/03 A3049 RMK A01 T00480027  RH  087%=      5-min Rain = 0
KCO1 080455Z 35005KT 05/03 A3048 RMK A01 T00480028  RH  087%=      5-min Rain = 0
KCO1 080456Z 35004KT 05/03 A3048 RMK A01 T00480028  RH  087%=      5-min Rain = 0
KCO1 080457Z 36005KT 05/03 A3048 RMK A01 T00480028  RH  087%=      5-min Rain = 0
KCO1 080458Z 01005KT 05/03 A3048 RMK A01 T00480027  RH  087%=      5-min Rain = 0
KCO1 080459Z 02005KT 05/03 A3048 RMK A01 T00480027  RH  086%=      5-min Rain = 0
KCO1 080500Z 00004KT 05/03 A3048 RMK A01 T00480027  RH  086%=      5-min Rain = 0
KCO1 080501Z 01004KT 05/03 A3048 RMK A01 T00480028  RH  087%=      5-min Rain = 0
KCO1 080502Z 01004KT 05/03 A3048 RMK A01 T00490029  RH  087%=      5-min Rain = 0
KCO1 080503Z 00004KT 05/03 A3048 RMK A01 T00490029  RH  087%=      5-min Rain = 0
KCO1 080504Z 00004KT 05/03 A3048 RMK A01 T00480028  RH  087%=      5-min Rain = 0
KCO1 080505Z 00004KT 05/03 A3048 RMK A01 T00470026  RH  086%=      5-min Rain = 0
KCO1 080506Z 01004KT 05/03 A3048 RMK A01 T00470025  RH  086%=      5-min Rain = 0
KCO1 080507Z 01005KT 05/03 A3048 RMK A01 T00470025  RH  085%=      5-min Rain = 0
KCO1 080508Z 35004KT 05/03 A3048 RMK A01 T00470025  RH  085%=      5-min Rain = 0
KCO1 080509Z 35004KT 05/03 A3048 RMK A01 T00480025  RH  085%=      5-min Rain = 0
KCO1 080510Z 35005KT 05/03 A3048 RMK A01 T00480026  RH  086%=      5-min Rain = 0
KCO1 080511Z 36005KT 05/03 A3048 RMK A01 T00480026  RH  086%=      5-min Rain = 0
KCO1 080512Z 36004KT 05/03 A3048 RMK A01 T00480025  RH  085%=      5-min Rain = 0
KCO1 080513Z 36004KT 05/03 A3048 RMK A01 T00480026  RH  085%=      5-min Rain = 0
KCO1 080514Z 35004KT 05/03 A3048 RMK A01 T00480026  RH  086%=      5-min Rain = 0
KCO1 080515Z 35005KT 05/03 A3048 RMK A01 T00480027  RH  086%=      5-min Rain = 0
KCO1 080516Z 36005KT 05/03 A3048 RMK A01 T00480026  RH  086%=      5-min Rain = 0
KCO1 080517Z 36004KT 05/03 A3048 RMK A01 T00480026  RH  086%=      5-min Rain = 0
KCO1 080518Z 35004KT 05/03 A3048 RMK A01 T00470025  RH  086%=      5-min Rain = 0
KCO1 080519Z 36004KT 05/03 A3048 RMK A01 T00480026  RH  086%=      5-min Rain = 0
KCO1 080520Z 36004KT 05/03 A3048 RMK A01 T00480027  RH  086%=      5-min Rain = 0
KCO1 080521Z 36004KT 05/03 A3048 RMK A01 T00480026  RH  086%=      5-min Rain = 0
KCO1 080522Z 00004KT 05/03 A3048 RMK A01 T00470025  RH  085%=      5-min Rain = 0
KCO1 080523Z 36004KT 05/03 A3048 RMK A01 T00470025  RH  086%=      5-min Rain = 0
KCO1 080524Z 35003KT 05/03 A3048 RMK A01 T00470026  RH  086%=      5-min Rain = 0
KCO1 080525Z 35004KT 05/03 A3048 RMK A01 T00480027  RH  086%=      5-min Rain = 0
KCO1 080526Z 34004KT 05/03 A3048 RMK A01 T00480028  RH  086%=      5-min Rain = 0
KCO1 080527Z 34004KT 05/03 A3049 RMK A01 T00480027  RH  086%=      5-min Rain = 0
KCO1 080528Z 34005KT 05/03 A3049 RMK A01 T00480027  RH  086%=      5-min Rain = 0
KCO1 080529Z 35004KT 05/03 A3049 RMK A01 T00480026  RH  086%=      5-min Rain = 0
KCO1 080530Z 35004KT 05/03 A3049 RMK A01 T00480025  RH  085%=      5-min Rain = 0
KCO1 080531Z 35005KT 05/03 A3049 RMK A01 T00480026  RH  085%=      5-min Rain = 0
KCO1 080532Z 34004KT 05/03 A3049 RMK A01 T00480025  RH  085%=      5-min Rain = 0
KCO1 080533Z 34004KT 05/03 A3049 RMK A01 T00480025  RH  085%=      5-min Rain = 0
KCO1 080534Z 35003KT 05/03 A3049 RMK A01 T00480025  RH  085%=      5-min Rain = 0
KCO1 080535Z 35003KT 05/03 A3049 RMK A01 T00480026  RH  085%=      5-min Rain = 0
KCO1 080536Z 35003KT 05/03 A3049 RMK A01 T00490026  RH  086%=      5-min Rain = 0
KCO1 080537Z 36004KT 05/03 A3049 RMK A01 T00490027  RH  086%=      5-min Rain = 0
KCO1 080538Z 36004KT 05/03 A3048 RMK A01 T00490027  RH  086%=      5-min Rain = 0
KCO1 080539Z 36005KT 05/03 A3048 RMK A01 T00490027  RH  086%=      5-min Rain = 0
KCO1 080540Z 36004KT 05/03 A3048 RMK A01 T00480026  RH  086%=      5-min Rain = 0
KCO1 080541Z 36004KT 05/03 A3048 RMK A01 T00480025  RH  085%=      5-min Rain = 0
KCO1 080542Z 36004KT 05/03 A3048 RMK A01 T00480026  RH  086%=      5-min Rain = 0
KCO1 080543Z 36004KT 05/03 A3048 RMK A01 T00480027  RH  086%=      5-min Rain = 0
KCO1 080544Z 35004KT 05/03 A3048 RMK A01 T00480027  RH  086%=      5-min Rain = 0
KCO1 080545Z 35003KT 05/03 A3048 RMK A01 T00480027  RH  086%=      5-min Rain = 0
KCO1 080546Z 36003KT 05/03 A3048 RMK A01 T00480028  RH  086%=      5-min Rain = 0
KCO1 080547Z 36004KT 05/03 A3048 RMK A01 T00480028  RH  086%=      5-min Rain = 0
KCO1 080548Z 00004KT 05/03 A3048 RMK A01 T00480028  RH  087%=      5-min Rain = 0
KCO1 080549Z 36004KT 05/03 A3048 RMK A01 T00480028  RH  087%=      5-min Rain = 0
KCO1 080550Z 35004KT 05/03 A3048 RMK A01 T00480028  RH  087%=      5-min Rain = 0
KCO1 080551Z 35003KT 05/03 A3048 RMK A01 T00480027  RH  086%=      5-min Rain = 0
KCO1 080552Z 34002KT 05/03 A3048 RMK A01 T00480028  RH  087%=      5-min Rain = 0
KCO1 080553Z 34003KT 05/03 A3048 RMK A01 T00480028  RH  087%=      5-min Rain = 0
KCO1 080554Z 35003KT 05/03 A3048 RMK A01 T00490029  RH  087%=      5-min Rain = 0
KCO1 080555Z 34004KT 05/03 A3048 RMK A01 T00490029  RH  087%=      5-min Rain = 0
KCO1 080556Z 33003KT 05/03 A3048 RMK A01 T00490028  RH  087%=      5-min Rain = 0
KCO1 080557Z 33003KT 05/03 A3048 RMK A01 T00480028  RH  087%=      5-min Rain = 0
KCO1 080558Z 34002KT 05/03 A3048 RMK A01 T00480027  RH  086%=      5-min Rain = 0
KCO1 080559Z 34002KT 05/03 A3048 RMK A01 T00480027  RH  086%=      5-min Rain = 0

Page generated in 0.0721 seconds.